GFSSW_925_rhum_057.txt.gz
RH
43 34 30 26 20 17 30 31 28 25 24 22 20 17 15 14 16 15 17 17 17 16 17 18 22 24 22 29 36 37 41 46 43 52 40 49 45 39 33 35 34 32 31 33 30
38 29 23 18 17 27 32 30 26 25 23 21 19 16 15 15 18 16 16 16 14 15 16 17 19 23 29 25 33 39 46 39 37 44 42 49 45 36 34 34 34 31 35 32 33
26 21 18 18 25 32 31 27 26 25 22 20 18 16 14 17 18 17 16 15 15 15 17 18 20 23 26 24 28 41 36 37 32 35 37 46 48 36 37 41 35 34 33 32 32
27 22 19 23 32 30 28 26 26 24 22 19 18 15 14 16 21 15 16 16 15 16 16 18 20 24 27 26 29 26 32 32 30 30 39 44 41 38 38 34 31 31 32 31 30
24 20 24 30 30 29 26 25 25 24 21 19 17 15 16 17 18 16 16 16 15 16 18 19 21 24 24 27 28 30 29 30 29 32 38 38 42 39 41 33 32 35 35 32 29
25 21 27 27 28 26 24 24 24 23 20 18 17 16 18 18 15 16 16 16 15 16 20 19 21 24 28 28 29 30 31 31 30 30 32 37 35 32 31 32 37 35 35 32 29
25 29 27 28 26 24 24 24 22 22 19 18 17 16 20 18 16 16 16 17 17 17 20 20 20 20 27 27 29 28 30 31 30 30 30 33 33 37 27 30 32 37 34 35 33
31 30 26 24 24 24 24 22 21 20 18 17 18 18 20 17 17 17 17 17 18 17 19 20 19 28 26 29 30 30 32 32 28 32 29 27 31 25 27 32 30 32 33 37 34
31 28 23 23 25 24 22 19 19 20 18 19 19 18 20 17 17 17 16 17 17 18 20 20 21 30 28 30 30 32 33 35 33 34 31 32 33 28 32 35 30 29 30 33 34
28 25 24 27 26 22 20 19 22 23 21 20 18 19 16 18 17 16 17 17 18 18 20 23 33 33 38 33 28 22 26 30 36 28 37 39 37 27 27 34 28 26 27 31 32
27 27 27 27 24 22 19 21 19 22 20 19 18 18 18 17 17 17 17 17 19 21 24 24 28 31 29 34 28 22 26 28 25 23 35 38 35 29 25 34 31 28 28 28 29
30 29 27 25 24 24 22 27 28 28 27 23 22 21 19 18 18 17 18 18 19 23 22 24 30 26 24 27 30 27 25 27 25 30 39 38 34 24 22 25 27 28 27 28 28
28 28 26 23 25 28 28 34 36 34 32 25 23 20 19 18 19 19 18 21 22 24 24 26 20 23 22 23 24 26 26 25 25 28 34 40 34 30 22 32 32 32 30 29 29
28 27 26 28 27 31 32 32 35 32 30 22 22 19 21 20 19 20 19 17 22 25 25 27 23 24 24 26 26 29 24 26 29 32 30 31 28 26 26 27 27 26 31 30 32
31 28 27 31 32 34 37 32 32 23 23 18 22 19 22 19 20 21 21 20 21 21 24 22 23 27 28 26 24 26 29 30 31 36 42 40 40 29 29 20 17 20 24 29 32
28 28 28 31 32 33 31 30 28 24 23 24 24 24 23 24 22 24 22 22 24 26 27 30 27 24 26 24 23 27 26 40 54 47 43 40 40 33 28 16 22 22 21 25 26
26 28 28 30 35 30 30 29 29 29 21 26 24 26 26 26 25 27 27 27 28 25 27 28 29 27 25 26 27 26 29 37 28 38 35 45 45 31 24 24 25 25 23 22 25
27 29 31 33 32 30 30 29 28 21 34 26 26 27 28 26 25 27 30 33 31 27 35 34 26 31 27 25 25 28 28 31 28 32 33 46 39 23 24 24 25 26 26 28 24
30 34 39 44 37 32 33 36 26 26 26 28 26 30 29 28 27 28 31 34 31 32 31 32 29 30 27 25 26 32 36 30 35 43 47 36 30 22 18 16 16 19 22 22 22
33 39 47 47 38 30 38 39 27 29 28 27 26 26 30 28 30 29 28 27 28 31 26 26 34 30 31 27 30 28 30 33 40 36 39 37 35 26 20 18 18 17 20 20 20
39 45 47 46 35 44 43 42 32 30 30 29 28 28 31 30 31 32 27 27 29 30 27 26 32 30 30 33 32 36 35 39 39 44 39 45 40 26 21 19 22 22 21 21 21
49 38 50 42 51 67 50 39 33 31 33 32 31 31 32 31 32 35 35 32 31 29 29 30 36 37 30 29 29 29 32 35 37 34 50 52 38 18 20 22 25 22 20 22 25
66 67 53 38 60 61 50 42 38 34 34 34 33 36 35 34 34 37 34 34 32 29 30 31 38 46 42 34 30 32 33 32 38 40 39 37 33 21 23 21 23 26 24 25 28
65 39 65 73 70 48 44 43 40 38 37 36 36 38 40 42 42 38 38 36 36 32 38 31 42 41 44 38 33 37 36 36 34 43 36 38 31 26 24 27 26 26 26 28 30
76 52 67 70 68 60 49 46 44 41 42 41 44 44 45 47 46 51 44 40 40 41 38 40 51 47 42 38 38 37 40 38 39 33 40 34 34 28 26 27 28 29 31 33 31
67 80 78 79 70 65 63 58 56 48 45 46 47 46 48 52 46 44 42 44 48 48 46 51 54 51 58 48 46 50 47 44 43 40 40 37 39 27 26 29 31 29 33 34 34
96 84 67 68 69 74 74 61 59 52 47 44 47 51 52 54 49 47 48 47 45 49 56 57 60 62 54 52 56 66 51 45 45 47 42 45 31 33 34 35 34 35 38 35 34

GFSSW_925_rhum_060.txt.gz
RH
70 44 35 30 23 18 29 33 27 27 24 22 20 18 17 16 17 16 14 16 18 15 17 23 26 24 23 24 28 27 19 18 18 24 17 31 32 30 28 29 28 24 24 25 26
61 39 29 23 17 22 32 32 27 26 23 21 19 17 15 18 18 13 16 16 14 16 19 16 15 21 19 23 24 22 21 15 20 21 23 30 31 28 31 30 30 27 25 28 30
44 28 23 17 19 31 32 29 25 24 22 21 19 16 14 18 15 14 16 15 15 16 17 19 18 17 21 22 22 25 18 20 20 24 28 29 35 30 29 30 25 25 24 26 28
26 24 20 20 29 30 29 26 24 22 22 21 18 15 14 16 19 15 16 15 14 16 18 17 16 17 20 22 23 23 19 22 23 25 28 28 28 30 29 24 22 22 21 25 25
29 26 23 28 31 29 26 25 23 22 21 20 18 15 15 13 14 15 16 16 14 16 17 15 16 17 18 20 22 23 20 22 22 25 26 28 29 28 26 24 22 24 26 25 24
24 25 27 32 29 27 24 23 22 22 21 19 18 16 16 16 14 16 16 16 16 17 18 17 16 18 20 21 22 23 23 20 20 21 25 30 23 28 16 20 21 25 26 24 23
25 26 32 29 28 25 22 23 22 20 20 19 18 16 15 14 16 16 16 17 16 18 17 20 19 18 21 23 23 22 21 16 18 20 21 25 22 26 15 19 18 20 22 24 24
26 31 32 30 26 22 22 22 20 20 19 18 18 18 14 17 17 17 17 18 17 17 20 22 20 20 21 22 20 20 22 19 21 23 23 24 16 12 13 16 18 16 16 19 23
31 31 29 26 26 25 22 21 20 22 20 19 20 16 14 17 17 17 17 16 18 19 22 21 19 22 22 18 15 20 15 17 17 23 23 24 17 11 16 19 17 14 13 15 18
32 30 28 28 27 22 21 21 24 24 22 20 17 16 15 16 18 17 17 18 16 18 18 19 20 20 21 18 16 16 16 15 19 19 26 22 22 15 11 13 16 14 12 12 14
32 30 30 28 24 20 22 23 20 20 19 16 15 15 16 17 17 17 18 17 16 16 17 20 19 17 12 17 18 20 21 19 16 15 22 18 17 16 13 13 14 14 15 13 13
34 32 28 24 23 24 22 20 26 27 18 22 20 19 20 18 17 15 18 16 17 16 20 19 18 13 20 21 24 23 22 17 16 20 25 18 20 16 14 14 14 14 14 14 15
31 27 26 25 27 27 31 36 35 30 24 21 21 18 17 18 16 15 16 17 18 20 18 17 14 20 20 20 22 19 20 18 20 19 19 23 17 15 10 15 16 15 16 17 18
30 29 28 30 29 31 36 32 36 27 20 18 21 18 20 18 20 19 18 16 18 18 20 19 20 21 22 21 20 23 19 21 22 24 22 21 22 15 11 13 12 12 13 15 18
31 30 28 32 31 33 36 32 29 22 17 19 20 19 20 18 19 20 21 19 19 17 21 16 20 23 24 21 21 20 26 25 27 25 28 24 26 14 16 11 10 12 13 14 15
28 29 28 30 30 33 32 30 27 20 18 24 22 22 22 22 20 22 20 19 21 22 22 20 24 22 21 22 21 24 23 28 33 28 28 25 27 14 13 13 13 11 11 13 14
26 28 30 30 35 30 30 27 22 20 22 25 24 24 23 22 22 23 23 23 22 22 22 22 23 24 23 25 25 22 24 22 21 24 21 31 31 18 14 13 14 14 13 13 13
28 30 33 32 33 31 30 22 24 19 23 25 25 26 25 23 23 24 26 23 26 23 24 26 19 26 24 24 24 25 24 22 28 20 19 33 29 16 14 13 12 14 14 14 14
32 36 40 43 36 31 23 24 18 19 24 25 25 26 25 26 25 24 24 23 24 23 24 23 24 27 26 23 24 29 27 25 24 27 30 20 18 15 12 11 11 13 16 17 17
36 43 52 46 36 29 24 27 22 23 27 26 25 23 24 23 25 23 20 22 26 25 22 22 26 27 28 25 26 25 24 27 25 30 28 20 22 18 14 12 13 16 18 18 18
38 34 48 46 32 29 30 27 26 24 27 26 26 25 24 24 24 23 20 24 25 26 24 22 25 24 27 27 24 28 26 27 28 28 27 25 19 14 16 14 18 18 18 18 20
51 34 50 42 38 42 34 30 30 28 32 31 29 25 25 27 26 26 24 24 27 25 27 24 25 29 24 25 26 24 23 22 26 27 26 27 28 14 14 15 18 20 20 20 22
44 51 52 39 37 40 42 37 35 33 32 32 32 31 30 29 30 28 30 31 32 27 27 25 27 30 24 29 26 26 25 23 24 28 32 32 26 14 14 15 18 20 20 22 23
45 37 53 47 49 38 39 36 35 39 34 32 33 34 34 34 32 32 32 36 33 30 36 28 32 32 29 24 25 30 28 27 28 35 30 28 25 20 18 19 21 22 24 24 24
52 42 55 50 49 42 40 39 40 38 39 37 40 37 36 38 39 39 38 36 38 39 35 32 41 34 32 30 31 33 34 32 34 31 34 29 25 22 21 23 23 25 28 27 28
59 54 63 57 59 52 53 47 43 38 37 41 43 40 39 39 34 35 37 40 39 42 39 40 44 44 45 36 36 41 37 36 34 33 32 31 33 23 24 24 30 31 31 30 30
89 78 52 63 59 54 49 47 49 45 46 42 41 42 46 42 39 38 38 39 38 40 39 42 42 41 48 34 43 45 34 36 34 29 32 38 28 29 36 38 38 37 33 36 35

GFSSW_925_rhum_063.txt.gz
RH
52 49 45 39 30 20 19 30 30 28 25 23 22 20 17 17 17 20 13 15 19 15 16 21 23 20 20 19 21 20 16 16 14 13 12 19 21 18 22 24 23 21 22 22 22
34 45 41 32 24 17 29 30 27 25 23 22 20 18 16 20 28 12 14 14 14 15 25 14 13 16 15 18 19 19 18 16 11 14 14 13 22 16 25 22 22 22 21 23 25
35 42 31 24 20 25 31 29 25 23 23 23 20 17 16 20 17 12 14 14 14 16 17 14 13 13 15 17 16 14 19 11 14 14 17 19 18 21 24 24 17 19 19 23 25
30 27 24 20 23 33 32 26 24 24 22 22 18 16 16 27 18 14 14 14 14 20 15 12 12 14 15 16 16 20 12 14 15 16 20 19 16 20 21 21 14 17 16 20 24
27 25 23 22 31 33 30 25 24 24 23 21 18 15 18 14 12 15 15 15 17 15 13 12 12 11 14 13 16 18 15 15 15 17 20 18 20 21 18 14 14 16 20 19 22
29 23 24 27 32 31 28 25 24 23 22 20 18 16 20 16 15 16 16 16 14 14 13 13 13 13 14 15 18 17 19 17 14 14 15 22 19 19 15 11 14 15 18 21 21
27 25 27 31 31 30 27 26 24 23 22 19 18 16 14 14 15 16 16 16 16 15 14 16 15 15 16 14 16 17 18 13 11 14 16 20 20 19 14 12 12 13 14 18 19
26 30 33 31 30 28 26 25 24 23 21 20 18 20 15 16 17 16 16 16 17 17 18 19 17 16 16 17 15 18 14 18 17 17 18 21 16 10 8 10 10 12 11 12 16
30 32 31 30 27 26 26 25 23 22 22 20 21 16 14 15 16 15 16 14 15 17 19 18 17 17 19 18 13 13 16 12 11 17 17 21 18 12 10 11 12 11 10 8 10
33 31 29 28 28 29 26 24 26 25 24 22 18 16 13 12 17 17 17 16 14 15 16 18 16 18 16 15 16 13 13 12 13 12 20 19 17 12 10 10 10 10 9 9 10
31 31 29 28 29 27 27 29 22 20 20 14 14 12 13 14 16 15 15 15 14 15 16 15 17 14 10 11 13 16 17 16 13 13 19 17 15 13 11 10 10 9 9 9 10
31 30 29 29 28 27 27 17 24 30 18 17 18 16 17 16 14 13 16 16 15 15 13 16 16 13 15 16 18 16 17 16 12 17 21 17 19 16 12 11 13 13 13 13 13
32 31 30 30 29 30 26 26 33 31 19 18 16 16 16 15 15 13 14 14 15 14 13 16 12 16 16 15 17 15 16 17 17 16 15 19 17 12 10 10 11 11 11 12 14
33 33 31 32 30 29 25 26 30 32 19 18 20 18 18 16 18 16 15 15 15 16 14 15 16 18 18 17 16 20 17 18 19 24 22 17 22 12 10 9 11 11 13 14 15
31 30 30 32 32 24 34 29 34 26 26 18 19 17 16 17 17 19 18 16 17 15 17 15 15 18 19 18 18 18 22 21 23 25 23 22 24 12 9 10 10 11 12 14 13
27 30 29 31 33 36 30 30 30 27 19 22 19 20 19 18 18 19 18 17 18 18 16 18 18 19 18 20 20 19 21 20 24 25 28 20 22 13 10 12 11 11 12 14 13
24 28 31 32 28 30 30 28 25 20 17 22 22 20 19 19 19 20 20 21 20 21 18 18 20 21 21 23 23 22 21 20 27 32 21 24 24 16 12 11 11 13 13 14 14
27 32 34 35 34 32 29 23 25 15 16 22 22 22 22 20 20 20 20 20 20 21 20 19 18 21 21 22 22 22 23 20 27 18 17 23 26 16 12 10 10 12 13 15 16
33 40 43 43 33 30 24 24 15 15 19 22 23 23 20 22 21 20 19 17 17 19 20 19 18 22 22 20 22 26 26 22 23 18 23 17 14 13 10 10 10 14 15 17 18
38 36 39 41 35 32 25 24 18 17 23 23 20 18 18 20 21 19 13 16 21 21 19 18 21 22 25 23 23 24 21 25 24 30 26 16 16 16 13 12 13 16 18 18 20
42 32 50 43 35 28 29 21 19 18 23 22 17 18 17 18 18 16 15 19 20 23 21 20 21 22 24 25 21 24 24 25 24 23 26 26 19 13 14 13 14 15 18 19 20
46 32 57 42 33 25 26 23 28 22 24 25 25 20 18 18 20 19 18 17 21 22 24 20 23 25 19 21 20 21 22 21 26 23 22 24 24 11 13 14 14 15 18 17 20
36 36 52 48 35 34 28 29 28 28 25 26 26 26 23 22 25 21 22 26 28 25 24 22 24 30 21 24 22 24 20 21 20 22 29 32 26 13 13 13 14 19 19 19 22
42 36 48 44 40 34 27 28 29 34 28 26 26 27 28 27 23 24 27 34 29 27 34 26 29 30 31 25 22 28 25 23 26 32 30 28 24 20 18 21 20 21 22 23 25
47 39 46 46 44 39 29 28 32 33 32 30 32 30 28 28 28 30 27 30 35 43 32 30 37 30 28 28 29 31 32 30 31 28 32 28 27 23 22 25 24 25 26 28 28
57 51 46 42 46 40 40 30 32 27 31 32 34 29 29 32 27 30 30 30 29 37 36 35 41 36 40 32 31 31 29 29 29 30 29 28 28 20 24 27 32 32 32 32 31
67 60 51 54 45 41 35 35 37 30 37 36 32 32 37 33 34 33 34 34 33 38 37 38 41 43 48 31 35 43 29 26 25 25 26 31 24 21 32 36 37 37 35 36 37

GFSSW_925_rhum_066.txt.gz
RH
41 40 36 34 33 29 20 27 31 27 25 23 22 20 19 17 18 20 23 15 20 16 15 23 23 21 19 22 23 19 29 28 24 18 19 16 18 16 21 25 22 21 22 23 24
40 37 33 31 29 23 20 31 32 27 25 24 21 19 18 18 20 23 14 12 12 13 28 16 15 16 22 21 23 27 33 25 17 15 18 17 18 18 23 28 27 25 27 23 24
37 34 30 27 23 19 29 32 29 27 24 24 21 19 18 20 31 16 13 13 12 13 25 14 12 14 20 20 20 22 30 22 16 15 21 23 22 17 22 30 26 24 28 26 26
33 31 24 21 18 22 33 32 28 27 25 23 20 19 18 26 25 17 14 13 13 15 16 12 13 17 22 21 17 24 19 15 15 16 20 22 19 20 20 21 21 20 19 26 29
26 24 22 21 20 31 32 31 28 26 26 23 20 20 19 23 17 14 14 14 15 15 13 14 15 16 20 17 15 20 20 16 16 17 19 21 24 24 22 20 18 17 20 28 28
29 24 23 24 28 33 32 28 26 26 25 22 21 20 28 22 15 16 16 15 14 14 12 13 16 16 18 17 19 18 22 21 17 17 16 20 21 21 20 16 18 18 19 24 28
27 24 26 25 32 32 30 26 26 25 24 22 22 22 19 16 14 16 15 15 16 15 15 15 15 17 18 20 21 19 23 20 17 16 17 23 25 25 18 18 17 17 18 20 26
25 24 26 30 30 29 27 25 26 25 22 22 22 25 20 15 16 16 16 16 16 16 17 18 16 18 18 19 17 20 21 24 17 18 22 20 27 16 14 14 16 14 14 16 23
24 26 29 28 29 28 26 27 25 23 23 23 21 23 19 14 15 15 15 14 15 17 18 17 17 19 21 24 24 19 22 18 17 20 19 25 30 20 16 14 14 14 14 14 14
28 29 29 30 29 28 28 26 25 28 27 29 27 18 15 14 17 15 16 16 15 15 18 20 22 24 24 24 29 22 20 19 20 16 23 27 24 17 14 15 16 14 14 14 13
33 30 30 30 30 30 29 32 31 33 26 19 16 15 12 15 15 16 15 15 15 16 23 21 23 24 17 19 18 18 19 21 18 18 21 23 20 18 16 17 19 17 18 18 18
33 33 32 32 32 31 32 28 33 32 27 20 17 17 16 16 16 14 15 17 18 23 18 20 24 17 14 15 17 20 22 23 19 17 19 23 22 19 19 15 16 18 20 20 20
34 34 32 32 31 32 30 30 30 31 24 17 17 17 16 15 16 14 15 14 18 20 17 19 17 16 17 18 19 18 21 22 22 21 21 23 27 16 14 17 17 18 18 18 20
33 33 32 31 34 28 27 28 24 24 26 21 21 18 18 18 21 15 14 16 16 17 17 18 18 18 18 19 18 25 21 22 24 30 35 23 41 21 16 18 19 21 21 21 21
31 31 30 31 37 25 34 29 26 26 30 18 20 17 16 19 20 19 17 17 20 18 18 19 18 19 22 21 20 21 24 26 26 33 34 26 33 24 14 15 17 21 20 21 20
29 29 31 31 32 34 33 27 31 32 29 24 20 22 21 20 18 21 20 18 18 21 19 21 20 20 21 21 20 21 25 27 28 33 41 28 28 26 17 14 16 17 16 21 22
27 27 31 36 34 35 29 30 33 31 16 26 24 21 20 22 20 21 24 26 27 29 29 22 22 22 22 25 25 26 31 36 45 48 41 27 29 26 17 15 16 16 21 24 25
31 29 33 36 37 33 32 33 40 16 19 22 21 21 23 21 21 22 23 27 23 21 26 24 27 25 24 23 25 26 27 31 35 31 28 28 35 25 14 12 16 18 23 26 27
34 33 43 44 33 33 33 38 22 19 19 22 24 26 26 23 24 22 25 23 21 22 25 24 25 22 22 21 23 28 32 25 30 26 32 25 19 16 14 16 20 20 25 28 27
44 37 36 44 34 36 37 34 21 18 22 23 25 21 19 25 26 21 16 18 25 22 20 20 27 24 29 24 24 26 25 32 32 42 37 27 26 24 19 17 18 18 24 26 27
49 41 51 42 37 39 39 32 20 19 23 24 21 18 19 18 20 19 16 21 20 24 22 23 24 27 26 31 27 35 32 29 29 34 40 43 33 16 18 20 19 22 26 25 28
47 46 56 44 45 38 38 24 28 21 22 27 26 26 24 19 21 20 19 26 22 24 25 26 30 34 25 23 23 22 24 26 36 33 33 35 30 17 18 18 19 26 25 25 28
52 50 51 49 44 40 33 29 28 27 29 29 29 25 25 22 25 24 22 29 28 25 28 25 32 38 30 29 25 25 24 25 26 29 36 43 36 19 19 23 26 29 30 30 32
56 53 58 57 47 47 38 32 33 34 31 26 26 26 28 29 24 26 28 35 30 28 31 30 35 38 42 34 31 36 33 30 34 43 40 38 33 26 25 28 30 32 35 37 37
61 52 51 63 54 50 39 30 33 41 37 30 32 33 31 32 29 30 29 44 38 49 34 34 47 38 35 34 35 39 39 38 40 36 45 37 36 30 27 31 34 36 38 38 39
69 62 55 51 47 49 49 40 37 31 36 38 40 33 33 36 32 32 30 31 33 41 39 40 54 45 50 40 38 39 35 34 34 33 34 33 35 26 28 33 40 42 43 42 42
63 58 64 48 48 47 47 40 35 32 31 32 36 36 37 36 40 41 39 39 37 38 46 51 55 54 62 41 48 57 39 34 35 33 32 39 32 40 42 42 45 47 45 44 42

GFSSW_925_rhum_072.txt.gz
RH
72 65 46 37 34 31 27 19 28 32 30 25 26 25 22 19 19 18 21 19 17 17 15 24 25 24 24 25 24 29 31 31 23 22 19 18 20 19 25 25 25 28 31 29 28
68 69 46 36 31 30 24 18 30 30 28 26 25 24 22 20 23 24 15 15 12 13 18 25 21 20 30 26 30 33 44 31 24 20 21 22 24 21 24 27 31 30 28 32 34
66 56 43 33 31 25 20 22 30 28 27 26 26 23 21 19 36 21 15 17 13 13 20 23 19 16 24 22 27 32 35 31 26 24 24 23 23 21 21 25 27 29 31 39 48
60 44 38 31 29 20 18 30 30 26 26 27 26 22 19 22 28 17 19 14 13 14 18 15 16 17 20 23 22 27 29 27 24 20 20 22 20 22 24 21 19 28 30 39 45
49 42 37 27 23 17 22 31 29 26 26 27 26 22 20 27 25 16 14 14 14 16 15 15 17 19 21 21 19 24 22 22 24 26 25 21 25 23 25 21 24 25 33 39 38
51 38 32 24 20 20 30 30 28 25 26 26 24 24 30 26 16 15 14 14 15 16 16 15 18 18 21 21 22 20 23 26 25 22 22 21 22 20 20 20 21 21 26 38 36
36 35 31 24 25 28 31 29 26 25 25 26 25 24 32 21 16 15 15 15 16 15 17 17 17 17 20 23 21 22 24 23 20 20 20 22 23 25 21 22 22 23 23 26 35
34 32 29 28 30 32 30 26 24 25 25 25 26 26 25 16 16 16 16 16 16 16 16 18 18 19 22 21 24 23 24 29 20 20 21 19 31 23 20 22 22 22 27 24 24
35 30 30 29 31 30 28 25 24 24 25 27 26 25 26 17 18 16 16 17 17 17 18 17 18 22 24 29 32 27 27 25 22 17 22 23 27 23 22 23 22 24 28 26 26
30 30 34 33 30 28 27 25 25 25 32 31 32 24 20 18 16 16 16 16 17 18 20 21 30 30 33 33 34 29 25 22 24 17 24 28 32 25 19 19 21 22 26 28 26
30 33 35 32 30 28 27 26 31 33 37 24 24 20 16 17 17 16 16 16 17 19 26 24 31 35 29 28 26 23 22 24 25 21 22 25 27 23 23 22 23 22 26 27 27
34 34 34 33 31 30 30 34 29 28 30 26 31 24 17 16 18 17 16 18 22 27 24 27 34 29 26 22 21 23 24 26 24 21 25 27 30 26 23 23 22 23 27 29 30
36 35 34 33 32 31 31 27 30 32 35 28 26 26 20 17 19 18 18 19 22 26 26 30 24 21 22 20 21 22 23 24 26 29 27 29 26 28 22 22 23 27 27 30 33
36 35 34 34 34 36 34 29 31 30 35 26 24 20 19 20 21 17 17 17 20 24 24 26 21 22 22 21 22 27 24 26 28 32 36 29 33 28 22 23 24 29 35 34 34
36 34 34 35 36 40 32 30 29 24 28 21 24 18 19 22 20 20 18 19 23 20 21 25 21 22 23 22 21 26 24 26 27 35 40 33 40 29 25 25 23 26 30 33 34
37 34 33 34 32 35 34 30 29 35 34 28 24 26 25 22 22 23 21 19 21 24 25 27 21 20 22 22 22 23 27 37 42 46 43 34 34 31 28 26 24 25 28 30 33
37 31 33 42 39 36 34 31 38 45 21 30 27 28 26 27 24 26 28 28 28 32 31 24 26 24 22 24 26 30 34 38 35 51 41 38 33 30 20 22 24 31 31 32 32
37 32 31 34 39 36 33 41 46 31 26 25 28 29 30 28 26 29 32 34 32 28 34 29 29 28 25 26 25 29 32 34 27 39 34 31 36 23 24 30 31 31 32 32 32
40 34 43 30 41 35 43 48 35 35 24 30 27 30 31 27 26 27 32 34 29 31 32 32 27 25 26 24 24 30 33 30 37 40 42 38 29 22 24 29 31 32 31 33 32
41 40 44 42 39 37 50 51 40 26 24 26 32 31 34 32 28 31 32 26 27 25 23 25 26 27 28 24 27 27 28 32 43 41 46 44 40 31 24 31 27 27 31 33 30
48 60 55 50 37 52 57 55 34 22 24 26 29 24 25 32 31 32 24 22 27 26 24 26 28 28 28 32 33 33 34 35 38 50 47 50 44 29 30 26 27 32 33 33 36
64 62 58 50 56 68 63 44 29 23 24 27 26 28 27 23 29 28 24 25 26 27 27 27 37 40 35 27 27 30 32 37 47 39 49 50 48 25 34 34 36 37 38 39 40
74 70 60 51 63 68 53 37 30 28 28 28 28 30 27 26 25 26 33 30 27 28 32 30 38 42 31 32 27 27 28 30 38 42 45 51 47 29 34 32 37 41 41 46 46
72 80 78 72 72 50 47 42 38 34 31 31 30 30 31 32 28 27 38 34 31 33 39 33 41 38 35 28 37 39 37 32 36 52 50 43 36 29 33 38 36 42 46 49 49
82 72 66 87 79 63 48 43 45 41 38 37 33 36 36 37 33 33 42 40 38 41 34 38 47 48 45 44 45 47 50 51 53 49 56 42 48 39 38 38 43 45 49 49 52
87 78 70 68 59 62 62 59 47 40 44 40 40 38 39 38 35 36 38 44 40 45 41 49 49 52 55 47 54 63 56 57 55 51 52 49 50 38 44 43 47 49 53 53 53
65 70 61 60 64 70 70 50 48 39 37 37 42 42 44 43 38 38 38 42 40 48 51 55 62 68 72 60 61 60 52 52 52 48 47 53 44 45 45 45 45 46 48 53 57

GFSSW_925_rhum_075.txt.gz
RH
72 71 66 52 44 36 30 24 22 34 30 27 24 24 22 18 18 20 20 18 20 17 16 24 25 26 25 27 28 29 27 29 24 23 21 18 20 18 24 28 26 30 31 31 34
65 67 66 49 42 34 29 20 26 34 30 26 25 23 22 18 20 26 15 16 13 13 16 26 19 22 31 26 32 34 37 27 21 21 22 22 24 21 21 24 27 30 30 32 43
61 62 61 45 38 33 26 19 30 33 29 26 25 23 20 18 28 19 15 16 14 14 20 25 21 18 26 23 28 33 37 32 27 26 24 25 24 22 23 24 25 22 26 41 50
64 64 63 47 36 30 24 19 31 30 27 26 25 22 19 21 24 17 19 17 14 14 20 16 16 18 21 22 24 29 30 30 28 22 22 23 21 23 25 21 17 24 26 42 53
67 64 59 41 33 26 22 27 32 29 26 26 25 23 20 23 23 17 16 14 14 16 16 16 17 20 21 21 21 25 23 23 26 28 28 23 26 24 24 22 23 25 27 38 47
68 53 40 33 28 24 24 34 30 28 25 25 25 24 29 23 17 17 15 14 15 18 16 16 18 19 21 22 21 21 24 27 26 24 23 23 23 23 20 22 21 22 24 33 44
55 40 31 31 27 26 31 34 29 27 26 25 25 25 29 21 16 16 15 15 16 16 17 18 17 18 20 22 22 23 26 25 21 20 20 24 22 26 20 23 23 24 27 28 36
38 39 32 31 30 30 34 31 28 26 26 25 26 27 25 16 17 16 16 16 16 16 17 18 18 19 21 21 26 24 25 29 19 19 23 20 30 24 22 24 25 24 30 30 29
38 35 30 32 32 33 32 29 27 28 26 28 28 25 24 18 18 17 17 17 17 18 18 18 19 24 25 30 30 30 28 25 23 18 20 22 26 23 24 22 22 25 30 30 30
33 32 30 32 34 33 30 28 28 29 31 31 35 26 21 20 16 17 17 17 18 19 20 23 32 33 35 33 30 26 28 24 25 18 22 28 31 28 21 20 21 26 30 32 32
32 30 32 36 32 33 31 31 33 35 42 27 29 22 17 18 17 18 17 17 18 21 25 26 32 34 30 30 26 26 26 26 24 22 25 26 30 28 29 26 26 25 31 33 32
32 33 34 36 34 34 34 31 27 26 32 28 30 26 20 17 18 18 17 19 22 27 26 28 34 30 26 27 27 24 25 28 25 23 27 30 32 27 26 24 24 26 31 35 36
35 37 37 37 37 34 33 27 30 31 33 28 30 30 24 18 20 19 19 20 23 27 28 30 22 24 25 22 23 24 25 25 26 30 27 34 27 29 22 24 26 32 32 34 36
38 37 38 37 35 37 35 29 28 30 34 27 26 24 20 20 22 18 18 18 21 25 27 29 24 21 24 23 24 27 24 26 28 32 35 32 35 28 24 24 26 31 37 36 36
39 37 36 36 40 44 34 32 30 21 27 19 24 19 21 24 22 21 19 19 24 22 22 24 22 22 23 23 24 27 26 28 29 36 40 34 40 32 26 27 26 28 30 31 32
40 37 36 37 36 38 35 31 26 32 35 29 25 26 26 24 24 23 21 20 21 24 25 26 23 21 23 23 22 25 28 35 47 48 42 33 36 32 31 29 26 28 28 28 31
43 37 36 35 36 36 34 29 39 39 20 30 28 29 27 29 26 26 28 27 28 30 32 26 27 25 23 24 27 29 30 34 26 46 37 39 39 32 23 23 27 31 30 32 35
44 36 34 38 41 38 30 41 38 27 31 26 30 31 30 29 26 30 32 33 31 28 36 33 26 29 25 24 26 30 31 32 25 36 37 34 35 25 29 30 30 30 29 32 33
43 41 37 31 42 37 41 47 40 38 27 32 28 31 32 28 26 29 34 36 32 33 33 35 29 27 26 25 24 31 35 29 42 44 47 42 32 23 29 33 32 29 32 34 35
41 40 47 38 43 35 49 50 36 32 26 27 33 31 36 32 31 33 35 29 26 33 24 27 28 29 28 25 30 29 30 35 44 38 45 45 42 36 29 33 28 28 30 34 34
52 58 60 49 39 54 61 56 40 33 26 28 32 29 31 34 34 36 30 24 27 28 24 28 26 28 28 31 34 34 35 40 41 49 45 50 42 33 34 31 28 29 35 37 41
62 61 64 46 58 73 64 48 35 26 25 28 27 28 27 30 35 32 32 24 28 29 29 28 34 37 32 28 28 29 32 38 46 41 52 52 52 26 34 31 31 35 39 40 42
72 78 63 50 68 72 58 42 33 29 27 26 27 29 27 26 26 30 26 32 29 28 31 32 38 38 26 32 29 31 33 36 42 44 54 51 45 32 38 36 36 42 44 47 49
73 82 79 76 74 58 52 45 40 35 31 30 27 31 32 33 30 26 34 34 33 32 42 34 40 31 30 25 36 38 37 33 37 53 50 50 41 34 35 39 39 45 45 51 53
78 69 70 94 84 69 50 43 47 41 39 38 36 37 36 38 35 35 39 39 38 41 37 38 42 45 42 37 44 46 45 48 48 47 50 42 47 41 42 42 46 46 47 49 51
89 80 78 71 68 67 68 62 51 43 44 43 41 40 42 39 35 35 44 43 39 44 40 50 48 51 52 49 52 64 60 58 56 54 55 54 56 41 45 49 44 46 50 53 56
66 78 65 70 76 76 75 58 56 42 41 38 43 41 46 43 36 35 38 40 38 46 51 54 63 65 64 63 62 66 55 57 63 60 56 64 52 48 47 42 42 43 47 53 61

GFSSW_925_rhum_078.txt.gz
RH
70 72 68 60 53 46 40 34 24 30 32 29 27 25 23 19 17 21 19 18 19 17 18 25 25 26 25 29 30 26 27 28 26 27 21 19 22 20 24 30 28 31 32 32 34
72 74 71 60 45 46 38 32 23 33 31 27 26 25 23 19 20 24 16 18 14 14 17 24 19 22 31 28 34 36 36 24 20 19 22 21 24 22 21 23 24 27 28 33 43
67 72 70 67 45 39 37 30 24 35 30 26 26 24 22 19 24 17 17 17 14 14 21 24 20 19 24 23 28 33 38 33 28 26 24 27 26 24 24 25 26 21 20 33 51
71 71 68 62 41 37 34 27 29 35 28 26 26 23 20 23 23 19 18 18 14 15 19 16 16 19 22 22 25 31 30 30 29 25 27 27 22 23 27 22 21 23 25 33 48
72 64 61 61 39 34 29 24 36 35 28 26 26 23 20 21 21 19 20 16 15 16 16 16 18 19 21 21 22 26 24 24 27 29 29 27 28 24 25 24 22 22 24 32 43
69 61 56 56 39 29 26 24 37 34 28 27 26 25 27 23 17 18 16 15 16 17 17 17 18 20 22 23 21 21 24 28 27 24 23 25 23 24 20 24 22 25 26 29 33
68 64 51 46 34 27 24 32 35 31 28 28 27 27 27 21 17 17 16 16 16 16 17 18 18 19 20 21 22 24 26 26 22 21 21 25 19 26 22 23 24 26 30 32 33
63 53 43 37 31 28 28 36 34 30 28 28 29 31 24 17 17 16 17 17 17 17 17 19 19 20 21 22 25 25 25 28 18 21 24 22 24 21 23 23 23 27 32 33 34
48 41 38 34 29 30 36 35 32 31 29 29 32 25 23 18 18 17 17 17 18 19 19 18 20 26 26 30 31 30 29 26 24 22 19 22 24 21 25 20 21 28 32 34 36
41 40 35 32 32 37 35 32 32 33 34 35 38 26 21 21 18 18 18 18 19 20 21 25 33 33 36 33 30 25 28 26 26 20 24 26 31 28 26 23 24 28 34 36 37
40 37 34 34 37 36 36 34 36 36 46 28 27 23 18 18 18 19 19 18 19 21 26 27 32 35 30 31 26 27 29 29 27 22 26 27 34 30 30 29 28 31 36 38 36
42 36 34 38 37 38 36 34 25 23 32 32 30 28 21 18 19 19 18 21 23 29 27 28 35 29 27 28 28 29 26 29 26 24 28 32 32 28 26 25 27 30 36 37 37
41 35 39 39 38 38 36 29 30 32 32 27 33 32 27 19 20 20 19 22 23 28 29 30 21 28 25 26 26 26 26 26 26 30 29 36 28 26 24 26 30 33 34 34 37
40 39 40 38 36 36 36 25 33 30 30 25 28 28 22 23 23 19 19 20 23 26 30 31 25 24 25 25 26 27 26 26 29 33 32 34 36 28 25 26 28 32 34 35 38
42 41 40 38 40 44 34 31 30 19 33 19 26 20 22 24 23 22 20 19 26 24 24 23 23 23 23 22 24 27 26 28 30 38 40 36 40 33 28 29 28 30 27 31 37
43 41 41 41 38 38 35 34 25 29 37 31 26 27 27 24 25 25 22 22 22 24 26 27 23 22 23 24 24 28 30 34 50 49 44 33 38 33 33 31 28 29 28 30 36
48 43 42 36 33 37 35 30 38 35 21 31 30 29 28 30 28 26 27 28 32 30 32 27 28 26 24 25 28 28 29 34 25 39 37 39 41 33 25 24 28 32 30 30 34
50 46 40 39 39 38 31 39 38 27 32 28 32 33 32 30 28 31 33 32 29 29 37 35 25 29 25 24 29 31 28 34 24 31 36 37 39 25 31 38 28 30 32 33 34
53 48 40 36 43 39 41 50 40 37 29 34 30 32 32 30 27 32 37 38 33 33 32 37 30 28 28 26 26 31 36 28 43 45 47 42 34 26 31 33 32 32 32 32 34
48 44 48 35 45 35 49 54 39 29 28 29 34 32 37 35 34 36 38 31 29 34 25 28 29 31 29 27 29 31 31 36 42 36 40 43 43 38 33 35 30 28 29 34 42
45 55 62 46 42 56 60 55 40 36 29 30 34 33 32 36 36 38 32 27 28 31 27 28 28 28 29 33 36 36 37 41 41 47 41 46 40 35 35 37 32 31 34 44 46
59 59 68 50 62 77 67 50 40 30 28 29 30 28 32 34 38 36 34 28 30 31 32 29 35 37 34 30 28 30 32 37 45 43 54 51 51 30 35 34 31 34 43 44 45
73 85 66 51 68 77 58 46 37 30 27 28 29 30 28 29 27 33 30 32 31 28 32 34 39 39 30 32 30 33 35 37 43 46 57 53 44 32 38 37 36 38 45 49 47
75 82 80 79 80 58 55 48 42 36 30 28 28 31 31 32 31 27 32 36 34 32 43 34 41 32 34 24 35 36 37 38 38 52 50 51 36 35 40 45 41 47 48 48 50
74 72 76 96 89 60 49 47 46 43 39 37 36 34 35 35 35 36 36 40 38 43 39 36 40 42 38 30 38 38 38 42 44 44 47 36 41 36 37 43 47 56 47 46 48
83 78 78 81 76 67 64 55 51 44 46 44 41 41 41 38 36 34 42 43 39 44 39 51 45 49 48 48 53 59 56 53 52 47 52 48 51 43 44 56 53 45 46 46 51
74 82 67 78 80 76 74 60 54 43 43 39 44 43 46 43 38 32 39 40 38 46 50 52 63 64 63 63 58 64 60 51 60 62 56 67 49 56 55 51 45 46 44 47 57

GFSSW_925_rhum_081.txt.gz
RH
74 58 70 66 48 49 41 38 32 25 35 33 28 26 25 23 20 24 20 18 18 19 19 26 24 25 25 34 32 27 29 31 30 37 26 20 21 21 24 28 27 29 31 31 34
73 58 65 67 56 45 41 37 31 25 36 32 28 26 24 22 22 26 16 18 15 14 20 21 19 22 31 30 36 36 37 27 20 20 22 21 24 24 22 23 23 23 24 32 41
70 70 74 66 69 40 40 36 30 26 36 31 29 27 24 24 28 17 18 17 14 15 23 21 19 20 24 24 31 35 36 33 28 22 24 27 28 25 24 26 24 21 20 24 43
76 72 70 64 59 37 39 34 27 30 35 31 30 27 23 28 23 19 19 19 16 16 18 16 17 19 23 22 27 30 30 31 28 26 31 30 25 25 28 23 24 24 25 28 31
74 70 64 67 60 38 36 30 24 34 34 30 29 28 24 22 20 20 21 19 16 16 16 17 18 20 20 21 23 28 24 25 27 28 29 29 30 26 27 24 22 23 26 26 27
76 71 64 63 66 35 32 27 23 36 33 29 29 28 30 24 17 19 18 16 16 16 17 17 19 21 22 23 23 22 24 27 28 26 24 25 24 25 21 24 22 26 28 29 31
73 76 68 53 41 33 27 24 28 36 32 30 29 30 28 22 18 19 17 16 16 16 18 18 18 20 22 22 23 25 25 25 22 22 22 26 17 26 23 22 24 26 28 32 34
76 73 51 40 34 30 26 25 38 36 31 31 32 33 25 17 18 18 18 18 18 17 17 19 18 22 22 23 24 24 25 27 19 20 25 23 23 18 24 21 24 27 28 32 34
72 63 43 34 33 32 29 36 38 33 32 33 36 27 24 19 19 18 18 18 18 19 19 19 20 27 26 27 28 28 28 26 25 23 20 21 24 22 25 23 24 27 29 31 33
67 40 34 35 34 33 39 38 36 35 37 40 41 27 22 22 19 20 19 18 19 21 22 26 33 32 34 30 24 26 27 27 27 21 23 24 28 27 28 27 27 29 31 31 31
52 38 38 36 36 40 41 39 40 38 51 31 31 24 18 19 19 20 20 18 20 23 27 29 30 33 28 31 25 27 29 30 28 23 27 28 32 29 29 29 30 30 31 30 30
46 43 43 39 42 42 42 38 28 23 32 37 31 29 21 19 21 21 19 23 24 30 27 29 34 28 27 31 29 30 28 29 26 24 29 33 31 27 26 28 29 32 31 32 32
42 43 40 43 45 46 40 32 28 32 32 27 36 32 26 19 21 22 20 23 26 30 30 28 22 31 26 29 29 28 29 27 25 29 31 36 29 26 26 28 32 33 33 33 36
44 42 44 47 47 38 39 25 32 30 30 24 31 30 24 24 24 20 20 21 24 27 32 31 26 27 27 30 29 28 26 25 29 32 28 34 27 29 28 29 30 32 32 35 37
43 40 45 43 38 46 30 28 32 20 39 21 29 22 24 24 25 24 20 20 28 26 25 23 24 25 25 24 26 25 27 29 31 38 39 36 36 30 29 32 31 32 34 37 38
43 45 48 52 46 39 37 32 24 29 40 32 27 28 28 25 27 26 23 24 23 25 26 26 24 24 23 26 24 33 32 36 49 45 40 35 36 31 32 29 30 31 31 37 37
49 46 46 43 37 38 37 27 37 37 22 32 32 30 31 31 30 27 28 30 33 36 35 29 30 26 24 27 29 28 29 32 24 34 35 40 39 31 25 24 27 30 31 34 36
54 52 47 39 39 40 29 36 37 28 30 30 33 33 33 32 31 30 32 34 29 29 39 37 28 31 26 26 31 32 28 31 24 28 30 37 41 25 27 35 34 31 32 34 37
56 58 48 39 45 39 42 50 40 35 27 36 31 33 33 30 31 33 36 36 32 32 30 39 30 30 29 28 27 32 35 28 41 46 44 38 32 26 32 36 36 36 37 37 38
57 51 48 38 47 37 51 55 40 29 30 31 34 33 38 38 35 37 40 33 31 34 26 29 31 32 30 29 31 31 32 36 40 33 36 36 38 33 35 36 36 36 37 40 45
44 52 62 44 44 56 63 54 42 35 29 33 35 35 34 38 38 40 35 29 30 37 30 30 29 30 31 34 38 37 38 41 39 41 37 40 35 32 34 37 36 34 38 46 48
54 54 73 51 66 80 69 50 41 32 36 31 32 29 35 39 39 39 36 32 31 34 34 30 35 38 32 31 31 32 34 36 39 40 50 46 41 29 32 36 35 35 44 48 48
76 89 68 52 73 78 59 47 38 32 30 30 32 31 29 34 31 36 33 32 33 32 35 34 38 38 30 31 32 34 37 38 43 45 52 44 36 36 38 39 35 39 48 49 48
83 92 84 78 80 62 55 50 44 36 30 28 30 31 32 32 33 31 33 37 35 32 41 34 40 32 32 24 35 37 38 41 38 49 47 43 31 35 40 44 42 44 49 49 47
74 75 79 96 90 60 50 48 49 43 39 35 36 34 33 35 36 35 34 41 39 48 40 35 38 41 36 28 37 36 37 43 44 40 38 27 38 30 33 38 42 45 54 48 47
80 80 74 87 69 60 61 57 50 43 45 44 40 40 40 38 34 38 40 43 39 44 40 51 46 44 44 49 44 50 51 50 45 38 46 43 43 33 38 51 57 55 50 46 52
83 78 62 82 81 62 62 55 52 41 42 40 41 47 49 42 36 30 38 40 38 46 49 51 62 60 56 61 56 64 59 54 55 58 51 58 45 50 57 58 55 52 51 49 58

GFSSW_925_rhum_084.txt.gz
RH
87 79 64 56 53 57 42 34 36 25 24 34 32 30 30 28 25 27 20 17 20 20 23 30 24 26 24 26 25 20 20 22 23 25 18 16 16 14 16 16 16 16 17 22 37
86 79 68 69 72 61 43 35 34 24 24 34 32 30 30 29 39 23 18 19 15 16 24 18 15 17 17 25 26 19 18 16 14 14 13 16 18 16 16 13 13 14 14 22 32
83 81 70 62 64 59 42 37 29 24 26 34 32 30 30 30 28 14 17 19 15 16 26 19 16 15 18 21 23 24 16 18 16 13 17 19 20 19 16 15 16 18 15 16 20
78 79 65 57 64 64 43 37 28 22 28 34 32 31 29 35 21 19 20 18 16 18 18 15 14 16 18 17 20 20 19 21 22 22 22 20 20 18 19 16 16 17 18 18 17
77 68 79 74 64 52 46 37 28 21 31 33 31 32 34 23 16 19 22 20 17 19 14 14 15 16 17 16 19 20 17 18 18 21 21 21 20 20 18 17 15 18 21 21 21
86 82 82 71 74 58 39 33 26 20 33 32 31 33 36 22 17 21 23 20 19 16 16 15 15 16 18 19 19 17 18 17 18 18 19 20 19 21 16 16 17 19 22 22 26
86 80 78 76 65 35 34 27 24 22 34 31 33 35 28 18 18 21 20 18 18 17 16 18 17 16 18 19 19 20 19 15 18 18 18 20 18 19 17 16 17 18 20 24 26
84 86 76 67 76 46 34 30 23 35 35 32 34 46 22 18 18 23 19 19 18 18 19 20 19 19 18 20 18 18 19 18 17 16 20 20 13 16 17 15 18 18 19 22 24
80 77 71 69 73 30 25 23 28 39 34 33 39 34 21 19 20 20 20 17 20 20 20 20 19 20 21 18 17 19 15 18 17 16 16 18 15 16 18 17 18 18 18 20 22
76 67 61 73 56 28 25 34 39 38 38 40 47 29 20 19 20 20 20 19 18 19 19 20 20 20 20 18 15 16 18 19 19 16 17 18 18 16 19 19 18 18 18 20 23
60 62 59 61 40 29 35 41 46 40 52 26 24 21 18 20 20 20 20 18 18 18 22 23 20 18 14 16 18 20 21 21 18 19 24 21 21 20 22 19 19 18 19 22 26
63 64 53 44 43 41 46 39 27 24 32 30 26 24 23 19 20 19 20 19 21 23 22 22 20 15 20 21 23 24 23 20 18 20 23 21 21 22 21 21 19 19 20 23 25
65 60 49 45 53 55 51 39 28 33 26 25 26 23 21 18 18 19 18 19 21 24 21 18 18 23 23 25 26 23 22 19 20 21 23 25 24 24 22 23 25 22 22 24 24
69 61 55 45 60 49 47 30 30 35 26 22 27 26 23 18 22 19 18 18 20 20 22 20 22 23 23 23 22 21 19 21 23 24 20 24 16 24 21 23 24 24 22 25 28
66 64 49 44 45 43 30 28 27 24 32 22 28 24 22 21 23 22 21 18 21 21 22 18 23 25 24 21 21 23 24 24 27 24 26 26 22 19 21 23 23 21 24 28 29
55 72 52 66 51 40 36 31 26 28 32 28 26 27 26 23 24 23 21 19 19 21 22 20 21 20 19 23 22 27 25 28 30 27 27 23 26 22 23 19 20 20 23 27 29
57 53 61 50 36 39 37 26 30 31 22 30 31 28 26 27 27 24 25 25 24 29 28 24 24 23 23 23 26 24 24 23 22 30 23 30 30 19 19 19 18 21 21 24 27
56 55 59 46 40 42 31 28 31 22 23 28 31 30 30 27 27 27 27 27 25 23 25 27 26 26 24 21 22 25 24 19 21 18 20 29 26 19 19 21 20 18 20 23 26
63 81 61 46 48 41 29 35 22 26 21 30 30 32 30 29 28 28 26 24 22 22 23 26 27 27 26 24 24 28 28 21 24 32 28 20 20 19 24 26 24 23 24 26 27
77 68 56 44 48 37 36 34 31 25 29 29 28 27 30 29 28 30 28 23 25 23 20 22 27 29 28 25 27 26 24 27 24 27 27 22 24 18 26 26 24 26 26 28 30
56 47 59 46 46 42 48 35 35 29 28 29 29 31 28 31 26 27 26 26 25 30 23 22 22 30 28 29 26 29 26 27 25 26 24 24 18 18 19 22 25 23 25 29 33
56 47 75 50 52 49 50 39 36 32 34 30 30 28 28 31 30 29 27 27 26 27 26 21 23 27 24 27 26 26 23 22 22 27 29 28 22 19 20 21 22 23 29 32 34
53 74 70 59 51 60 54 44 37 32 31 30 30 29 26 31 33 30 31 30 31 28 27 25 26 27 27 29 28 28 26 24 27 27 26 26 19 26 23 24 24 26 31 36 36
65 74 70 58 55 46 51 49 45 38 30 28 28 29 29 29 30 30 29 36 31 28 39 28 28 22 18 18 24 30 29 28 25 27 24 26 19 21 25 27 26 28 32 35 35
61 59 57 70 67 50 42 47 46 41 36 31 33 29 27 30 31 28 31 37 37 46 32 27 28 27 24 23 27 25 26 30 31 24 27 20 20 19 20 25 26 28 31 37 36
64 65 68 63 55 50 55 49 45 41 37 35 35 30 30 26 23 27 29 32 28 39 33 37 30 34 32 38 33 35 30 28 29 26 25 27 28 20 20 22 23 28 38 38 38
77 71 50 74 58 49 50 45 46 39 40 32 32 32 39 32 25 26 27 28 28 30 33 37 37 38 31 47 46 46 37 32 30 30 29 34 27 30 35 36 31 31 38 35 41

GFSSW_925_rhum_087.txt.gz
RH
87 73 77 87 74 61 43 41 40 31 24 28 34 30 28 28 25 39 23 18 19 19 24 25 23 20 18 18 19 16 18 19 18 19 15 15 14 10 10 12 8 11 11 17 26
88 83 71 77 74 70 48 42 41 32 22 29 34 30 29 28 37 23 18 16 16 17 24 18 13 13 14 18 18 17 18 14 12 10 11 11 13 12 12 10 9 9 10 14 18
82 82 80 72 64 58 38 42 39 33 23 30 34 29 29 28 30 15 17 17 14 16 20 14 12 12 14 15 16 16 15 13 10 10 11 14 14 13 13 13 15 16 14 13 15
77 80 79 79 71 72 57 51 35 32 24 31 34 29 27 42 24 19 18 18 15 24 18 14 12 14 15 16 14 16 12 13 14 16 16 15 15 14 14 15 14 14 14 15 14
79 87 85 74 69 66 54 45 35 31 25 35 32 28 34 24 18 24 20 19 20 21 14 13 14 15 16 13 14 16 13 13 13 14 16 14 16 16 16 14 13 15 17 18 18
81 84 82 71 62 64 61 43 35 29 28 38 29 28 37 25 17 33 32 29 18 16 13 14 14 14 15 15 16 15 14 13 12 13 13 18 14 18 14 13 14 16 18 19 22
81 84 85 75 71 62 67 40 34 26 34 37 30 40 27 20 18 27 27 19 17 15 14 15 14 15 15 15 14 14 16 11 12 15 15 16 17 18 14 13 14 14 17 20 21
86 84 89 78 71 69 70 39 35 26 35 34 31 42 25 19 20 26 20 17 17 16 16 17 16 15 16 16 14 15 13 15 14 14 17 17 14 14 13 13 15 14 16 19 21
92 90 87 81 74 53 49 38 28 33 35 32 40 33 24 19 19 19 18 16 16 17 17 17 16 17 18 17 14 14 12 14 15 13 14 15 13 14 14 14 14 14 15 17 20
94 91 85 82 74 59 75 42 41 37 35 33 38 28 21 19 17 18 18 16 16 17 18 18 18 20 17 15 17 13 13 12 14 15 14 15 15 13 14 16 14 14 16 18 22
94 92 81 76 63 40 58 46 29 27 39 28 24 22 17 18 20 18 18 17 16 18 23 20 23 21 12 12 12 15 14 14 12 15 19 17 16 14 15 17 15 15 16 19 24
97 92 83 79 51 41 56 22 18 27 29 28 23 23 20 17 19 17 17 19 20 24 20 23 24 16 14 16 17 16 17 16 13 16 20 16 17 17 19 17 15 15 17 21 22
98 93 86 75 76 64 45 32 28 33 29 22 22 22 21 19 18 18 17 18 21 24 22 24 16 17 17 19 20 18 17 15 17 16 17 20 20 22 19 18 17 15 18 19 22
95 86 90 76 62 45 44 36 29 38 33 25 30 24 20 18 21 15 17 17 19 20 19 17 15 19 19 18 17 18 15 16 18 21 19 18 18 23 21 22 22 21 21 21 22
90 86 82 41 37 38 28 29 34 32 46 20 24 23 18 22 21 20 17 18 20 19 18 18 21 23 22 18 16 19 20 20 22 22 20 18 23 10 19 21 21 20 20 23 24
87 76 79 66 54 35 36 35 29 39 43 26 23 26 26 23 22 22 21 17 17 18 18 17 18 17 17 19 18 22 22 24 24 22 25 15 19 18 20 18 18 18 20 23 24
91 75 81 61 36 41 40 28 40 39 21 31 29 26 24 25 24 22 24 25 24 28 26 20 20 18 19 21 23 23 21 24 25 30 22 22 24 15 15 14 14 17 19 22 24
94 82 66 56 45 44 34 32 38 21 21 25 26 26 27 24 23 23 24 25 22 20 20 23 26 20 20 19 18 24 20 21 23 16 17 24 24 18 15 15 14 14 16 20 23
99 88 71 55 44 44 34 42 31 18 17 28 27 31 30 26 24 24 24 24 20 20 22 18 22 24 22 20 20 24 27 19 20 19 21 12 15 18 17 19 18 17 17 21 23
68 67 55 54 47 42 46 39 23 22 24 25 26 24 30 29 28 26 22 18 19 17 15 16 26 25 26 23 23 25 20 24 19 22 24 17 18 16 22 20 20 20 19 21 23
58 45 61 49 47 46 49 35 26 25 26 26 24 26 23 26 24 27 21 22 18 21 18 17 19 30 26 27 24 26 24 22 22 21 21 19 16 13 13 16 19 18 20 21 24
50 45 70 48 48 44 45 30 28 28 28 29 27 24 24 24 25 23 21 22 20 24 25 18 19 24 23 23 22 22 19 18 21 21 22 26 21 14 15 15 16 18 19 21 25
47 69 75 54 49 41 38 33 34 31 29 28 28 26 23 26 29 23 25 27 26 25 21 20 21 25 27 27 24 24 20 20 18 23 21 23 19 19 18 17 18 19 20 25 30
47 67 67 59 36 34 42 41 44 34 27 25 25 25 26 26 26 29 28 34 27 26 35 24 23 22 20 21 20 25 23 22 22 22 20 20 18 15 18 20 20 20 22 27 32
40 38 42 60 50 43 37 40 47 41 32 24 29 24 24 26 27 24 26 36 34 42 27 24 28 21 19 19 21 20 20 22 24 21 23 18 17 14 14 16 19 20 22 28 33
43 57 48 40 38 45 46 40 48 42 32 31 29 25 23 23 23 23 24 25 25 36 29 29 28 28 27 22 27 28 24 23 21 23 22 20 21 15 15 18 18 17 22 29 33
50 53 36 47 43 50 44 36 36 35 33 26 27 27 28 25 19 25 23 22 22 25 29 32 28 31 30 29 34 36 31 27 23 20 22 27 20 21 23 28 25 24 25 31 32

GFSSW_925_rhum_090.txt.gz
RH
88 84 80 71 67 69 67 59 42 36 35 28 32 33 28 26 22 33 29 23 23 19 25 23 24 20 18 20 20 17 30 31 23 20 18 16 15 11 10 12 11 10 11 23 28
92 90 78 76 72 65 67 62 43 38 33 28 34 31 27 26 29 29 21 18 17 17 23 22 19 14 20 18 21 24 33 23 13 11 12 11 13 14 14 14 12 12 15 16 18
90 83 68 67 74 76 69 60 47 41 31 27 36 30 27 26 36 17 17 17 15 15 22 16 12 13 16 16 20 19 26 17 13 19 17 16 16 13 15 17 20 19 18 17 15
82 83 82 76 71 76 67 66 50 41 32 27 36 29 26 34 29 23 19 16 13 14 23 15 14 17 17 19 14 19 16 13 15 21 18 17 16 17 16 17 16 15 18 18 19
90 89 91 86 72 72 60 60 44 38 33 28 34 28 28 33 23 21 17 18 14 20 21 15 16 16 21 14 14 18 17 14 12 14 17 17 18 19 18 16 13 16 17 21 24
87 88 91 79 73 70 67 58 47 40 30 32 32 29 43 34 18 27 22 20 21 20 16 14 16 16 18 17 17 17 17 16 13 13 14 18 19 17 18 14 16 17 22 24 25
90 88 89 83 77 69 66 61 44 32 26 35 31 32 30 26 18 27 30 28 20 16 15 14 14 17 18 20 16 17 19 17 15 14 17 16 23 23 17 14 15 19 24 26 27
89 88 85 86 79 70 60 56 37 30 30 34 30 42 32 19 19 23 24 18 17 16 16 16 16 17 18 17 17 17 18 24 17 17 20 20 23 20 14 16 16 19 24 27 29
89 88 83 89 87 76 61 58 33 34 38 33 38 36 29 20 19 20 20 16 16 16 17 16 16 20 20 24 24 19 22 19 22 15 17 21 20 21 15 14 18 19 23 26 30
89 89 92 89 89 85 63 37 38 42 34 48 36 32 24 21 17 17 19 16 17 18 18 20 22 27 26 25 30 20 19 14 16 19 16 18 20 19 18 17 18 20 24 28 30
90 88 94 91 88 76 62 43 47 47 38 26 25 21 18 18 19 18 18 17 17 21 28 24 30 33 26 19 16 18 19 18 15 20 19 22 21 17 20 20 22 21 26 31 32
92 95 95 92 85 68 73 46 19 27 33 30 21 24 22 21 20 18 18 21 23 28 24 27 33 24 19 18 17 19 20 20 17 18 20 21 21 19 19 22 23 22 28 32 32
93 94 93 92 86 90 64 35 36 26 28 26 26 20 22 21 22 20 18 20 24 28 26 30 24 17 16 17 21 21 23 21 20 19 20 23 29 24 20 21 21 20 27 28 32
95 98 94 93 90 54 49 36 34 20 33 27 27 24 18 22 26 18 18 20 23 27 25 27 21 18 19 20 19 26 20 18 19 22 32 23 33 28 26 24 22 25 28 30 32
96 99 91 65 38 43 24 28 31 28 54 21 27 22 18 25 23 21 17 19 25 23 21 23 24 25 24 21 18 22 21 19 22 28 28 25 31 24 26 32 30 27 28 32 32
96 98 82 70 48 33 29 30 29 44 49 26 27 28 27 25 24 23 22 19 18 23 21 21 18 18 19 20 19 23 23 26 25 31 40 27 28 32 31 28 28 26 28 33 33
96 96 88 55 42 38 33 30 48 51 22 33 31 28 29 31 29 25 27 28 28 33 32 24 24 19 21 26 24 24 28 38 47 46 42 22 27 25 23 20 21 23 26 32 33
97 96 79 54 41 37 33 38 53 30 27 26 28 28 32 27 29 27 28 31 25 25 27 33 32 25 23 24 27 30 26 34 39 34 30 24 36 26 20 18 18 18 23 30 34
100 100 82 61 44 41 35 53 42 25 23 30 29 34 32 26 27 28 28 29 24 24 30 24 29 25 24 21 21 27 35 22 29 22 28 22 20 20 20 20 19 20 24 30 32
97 89 66 57 48 43 42 46 33 22 24 28 34 30 36 32 32 28 28 22 24 22 21 21 36 26 28 23 24 28 26 30 28 32 34 25 19 25 25 25 24 23 27 30 33
76 71 56 56 47 42 47 41 35 22 25 29 30 31 28 34 30 29 24 23 20 23 20 22 24 34 30 32 31 32 30 27 28 29 34 32 28 17 23 24 27 25 25 30 34
65 64 65 50 54 48 48 37 34 28 27 33 31 26 27 28 30 29 28 24 22 26 27 21 26 40 30 25 23 25 25 25 33 25 30 34 37 18 20 19 23 24 24 29 34
58 85 64 50 52 55 43 40 34 32 32 32 33 29 24 28 33 27 27 28 29 28 27 24 28 33 36 30 26 28 26 26 24 26 33 35 31 21 18 18 21 24 28 33 38
58 86 78 70 48 41 45 44 43 37 33 28 28 27 27 29 29 31 35 35 28 29 30 26 29 29 31 27 29 30 26 26 28 34 29 28 23 24 24 23 23 24 31 39 42
64 57 57 76 61 43 40 40 42 48 38 29 31 31 30 31 32 30 37 42 35 41 28 32 37 30 27 21 21 24 25 27 31 28 32 25 24 20 20 24 24 27 32 40 42
70 50 49 53 45 47 47 43 44 42 38 36 34 31 28 28 29 29 33 36 36 41 35 33 39 30 31 26 26 32 29 27 27 26 25 25 27 20 20 25 26 25 31 37 41
54 49 42 52 53 52 52 42 43 41 37 30 31 33 33 28 30 29 29 29 34 39 38 42 39 37 41 29 36 47 37 34 28 26 25 30 25 29 30 30 28 30 28 38 42

GFSSW_925_rhum_093.txt.gz
RH
79 79 79 77 70 64 61 55 53 47 40 31 26 32 32 29 25 26 38 23 24 20 24 24 25 24 22 23 20 21 32 36 26 23 22 16 15 14 13 14 14 12 20 27 32
85 84 85 83 72 64 61 57 58 50 42 31 26 32 30 30 30 36 17 22 19 18 19 27 27 26 22 22 23 29 36 25 12 12 14 17 16 15 15 18 16 19 21 30 27
88 87 88 78 69 67 63 63 60 47 40 30 26 32 28 29 52 27 16 20 16 14 20 24 21 14 18 18 22 22 27 20 19 20 19 18 18 15 16 16 20 19 18 18 18
83 79 73 70 69 66 64 59 64 47 38 29 26 34 28 32 34 21 21 19 16 14 20 21 17 17 18 20 18 19 17 17 15 20 18 18 17 18 17 18 17 19 19 21 26
79 88 88 79 70 69 66 68 63 47 34 26 29 33 30 45 37 24 19 18 14 15 24 24 19 20 21 20 16 18 19 16 13 22 19 18 20 19 19 19 19 18 26 28 28
81 88 90 90 84 76 72 68 62 44 34 22 35 33 49 42 24 25 19 19 17 18 20 18 18 16 19 18 19 18 19 19 16 15 16 20 19 20 18 17 18 26 28 30 30
85 86 89 89 85 80 74 66 61 42 31 21 38 38 45 34 21 26 30 22 18 20 19 16 15 18 20 23 18 17 20 21 19 17 18 20 23 25 18 17 20 29 33 33 33
85 86 95 85 87 84 79 70 54 42 28 33 36 48 50 23 20 21 25 26 20 17 16 16 15 17 19 19 20 20 20 24 20 22 20 17 22 25 20 18 24 32 36 37 36
86 86 89 82 87 87 82 72 45 35 27 42 36 49 39 22 19 19 20 18 17 17 17 16 16 21 21 26 33 25 27 22 20 19 23 22 21 21 18 20 26 34 37 38 41
93 85 90 83 89 88 76 66 35 39 35 54 45 40 31 24 18 18 21 18 18 19 19 19 25 29 31 34 41 27 22 20 23 20 19 23 24 23 20 19 25 34 38 40 43
96 88 89 91 92 87 78 50 65 62 54 46 39 36 22 20 19 18 20 18 19 23 30 26 35 38 33 31 27 20 20 22 18 18 20 22 23 22 22 21 27 35 41 41 42
95 91 88 93 93 85 74 67 38 30 45 40 37 30 20 22 22 20 18 23 26 32 28 33 41 31 27 20 17 19 21 24 20 21 21 22 23 22 25 25 25 33 43 42 39
91 92 90 91 96 96 86 54 35 31 33 32 32 28 26 23 26 23 21 24 26 32 33 40 31 27 23 19 20 21 23 24 24 20 21 22 30 28 23 22 26 33 37 38 41
89 89 90 96 99 87 89 25 37 36 38 35 42 31 22 24 31 21 19 22 26 32 32 33 26 24 19 21 21 26 20 21 21 25 29 24 39 29 28 27 29 35 39 39 42
87 86 90 88 57 68 40 25 34 33 54 28 36 22 21 31 28 25 19 22 30 29 26 32 24 24 24 23 20 25 21 21 22 28 31 30 34 31 32 30 31 40 40 40 40
87 87 90 90 59 39 27 26 36 52 63 31 31 32 30 32 26 24 22 19 20 25 24 27 18 22 23 21 21 24 24 26 29 36 47 36 34 34 37 31 32 32 38 38 42
89 88 92 88 54 36 31 38 56 72 26 34 37 34 30 34 33 28 30 30 35 38 36 26 24 20 21 26 25 25 31 43 48 51 50 28 35 30 28 29 25 29 36 42 40
92 91 92 74 42 38 33 46 73 49 37 30 32 37 37 34 35 30 33 36 30 28 35 43 38 27 24 27 28 33 31 42 47 48 34 30 33 27 23 24 25 24 28 37 42
92 99 99 74 48 41 39 48 61 39 28 35 33 41 40 34 34 34 36 36 29 29 34 37 36 25 26 22 24 28 35 27 32 30 34 29 24 22 21 23 29 30 34 38 40
98 96 89 67 59 50 47 51 44 24 30 33 41 38 44 37 34 36 39 29 30 26 25 26 35 28 28 23 25 28 27 32 35 34 35 34 23 26 25 24 24 31 34 38 40
95 92 63 67 58 70 60 46 38 25 26 32 34 39 36 38 34 37 32 26 25 29 25 27 28 35 29 34 34 33 33 31 31 40 40 35 29 21 25 25 28 28 35 39 40
81 81 69 58 80 66 59 45 34 30 30 32 31 34 35 38 37 34 34 26 25 29 30 26 31 44 38 27 27 29 30 29 38 28 36 37 37 21 20 25 27 27 29 37 37
78 94 68 52 77 71 48 41 35 38 35 36 37 33 26 36 39 34 31 30 27 26 28 26 32 41 36 32 27 30 29 27 29 34 35 40 36 23 22 20 24 27 28 38 43
83 97 88 89 68 60 55 43 50 39 36 31 32 29 28 30 29 37 41 35 29 32 31 27 31 34 38 32 32 32 30 30 31 38 35 38 29 22 23 22 23 26 31 44 46
88 83 62 80 69 63 46 50 49 50 42 35 34 33 33 35 31 36 44 40 36 38 28 31 36 32 30 26 25 27 28 30 33 29 33 24 28 24 21 26 26 30 45 48 49
95 80 69 68 56 61 57 49 50 46 41 42 38 36 36 32 34 36 42 40 36 41 35 36 40 31 31 28 27 29 28 29 32 29 33 31 31 24 24 28 30 32 44 45 46
74 59 51 64 61 60 57 44 47 41 41 34 35 36 35 32 30 31 31 34 38 39 41 40 41 40 40 30 37 43 39 35 32 30 28 35 26 24 32 33 30 35 39 46 47

GFSSW_925_rhum_096.txt.gz
RH
74 76 80 78 76 68 62 55 52 44 41 34 31 25 34 31 27 26 40 19 22 19 25 24 25 26 24 24 22 24 32 36 25 20 24 17 14 16 14 14 15 25 26 29 32
72 79 84 85 85 75 65 56 52 46 37 36 28 27 35 33 33 41 17 21 22 19 23 27 26 26 24 22 25 31 36 25 17 15 16 18 16 16 15 17 19 20 28 34 33
69 77 87 89 90 76 68 59 54 48 40 36 28 28 35 33 54 30 18 20 21 18 20 26 26 26 22 22 22 25 28 24 18 20 19 18 17 16 17 17 19 21 21 24 30
73 83 92 89 86 75 69 63 57 46 42 37 28 32 33 35 34 22 20 17 19 16 17 24 19 18 20 21 18 22 20 18 17 19 18 17 18 18 18 17 18 20 20 24 27
73 74 74 76 77 78 72 67 62 57 43 39 29 36 31 50 42 24 22 22 18 16 22 24 20 21 22 20 17 19 18 18 16 22 18 18 19 19 19 19 20 28 29 30 29
79 73 72 80 80 80 76 71 66 65 50 38 34 36 46 49 23 27 20 22 16 18 21 21 18 17 20 20 20 18 18 20 19 16 17 19 20 19 18 21 23 29 33 34 32
83 80 80 85 88 85 76 73 71 69 47 35 43 37 59 42 25 27 26 22 19 18 20 17 16 18 20 22 19 18 21 21 20 18 18 20 22 25 20 21 29 34 37 37 35
82 83 82 87 90 87 82 80 74 66 43 34 42 48 59 22 22 22 24 31 22 21 17 16 16 18 20 19 24 22 21 26 19 22 20 18 25 18 23 24 33 37 41 42 40
84 85 83 89 96 87 86 77 71 52 36 39 42 53 52 24 24 20 23 22 18 18 17 16 17 22 22 30 36 30 28 25 23 20 24 20 21 21 24 23 34 41 45 46 44
87 88 86 86 89 90 88 75 57 37 38 46 51 48 36 30 20 20 22 19 19 20 20 20 30 32 35 38 42 28 25 22 22 20 23 25 28 22 21 24 34 43 47 50 50
90 91 89 88 87 92 91 63 55 47 61 44 39 37 24 24 20 19 22 22 21 24 30 26 34 40 32 34 30 28 26 24 20 18 20 23 25 23 23 23 35 44 49 52 53
95 91 93 89 88 93 85 70 39 29 41 48 47 39 29 22 24 21 22 25 28 32 30 35 40 31 30 31 30 23 22 24 21 21 22 24 26 24 24 25 32 39 49 52 52
98 93 91 90 87 98 92 56 40 35 36 31 35 36 32 26 29 25 23 26 29 34 35 40 32 29 32 30 26 22 24 22 22 22 22 25 31 28 25 26 30 37 41 46 51
98 95 92 88 98 95 96 29 42 40 40 34 42 31 28 27 33 21 21 24 28 35 35 37 30 30 26 23 23 25 22 23 23 26 32 25 41 31 29 29 32 40 48 49 50
99 95 90 85 83 94 60 29 37 34 54 28 42 25 24 34 30 30 20 24 33 32 34 38 30 38 34 28 22 28 23 21 23 30 33 32 37 31 32 33 34 45 45 49 48
97 93 88 97 77 68 37 30 36 46 61 36 35 35 35 33 29 27 24 22 25 30 28 33 21 23 26 22 22 23 24 35 40 41 48 36 36 30 36 34 33 42 43 44 49
98 92 89 92 70 50 35 42 55 63 31 39 42 37 37 41 36 31 32 33 39 44 41 29 25 20 22 26 24 26 32 46 49 56 53 32 39 26 23 30 30 37 41 44 46
100 92 90 93 51 45 35 54 61 52 45 32 36 40 39 38 39 34 36 39 32 32 43 44 44 28 24 25 28 30 31 44 50 56 41 29 39 25 23 27 26 31 34 44 49
100 100 98 92 64 44 42 55 51 51 34 38 40 48 46 39 38 35 40 41 33 32 36 47 42 27 26 24 23 30 35 27 35 35 37 32 24 22 22 26 31 35 42 43 46
98 98 94 91 78 62 48 48 44 36 33 34 44 44 56 47 44 42 45 38 33 30 26 30 36 30 28 24 26 30 27 36 39 41 41 35 30 26 23 24 31 37 39 41 43
98 97 78 94 78 68 58 42 45 27 31 34 41 46 43 45 42 47 48 34 31 34 27 30 31 35 28 33 36 34 34 32 35 40 42 38 30 25 24 25 28 34 36 39 43
93 98 92 86 88 65 67 46 37 32 31 33 34 34 40 41 40 44 42 32 28 31 36 32 36 47 37 28 29 30 32 34 44 35 42 38 34 21 23 25 27 28 32 38 40
96 98 96 72 79 76 53 43 40 36 34 37 36 35 33 42 39 38 37 28 29 35 34 29 38 44 36 33 29 33 32 30 33 35 38 39 33 23 24 22 26 28 30 38 47
98 98 96 86 69 63 55 44 44 40 38 36 35 32 30 36 34 43 39 33 31 32 36 30 35 34 36 34 33 35 35 32 31 38 34 41 30 23 22 23 23 27 30 36 46
96 88 77 89 78 60 49 44 44 51 40 34 35 35 33 38 36 40 44 39 36 37 30 31 37 35 33 30 29 30 31 36 36 30 37 27 32 22 25 25 25 26 32 47 55
96 78 68 66 61 60 54 51 47 41 46 45 42 39 35 40 35 40 46 40 35 39 34 39 39 38 33 28 29 28 30 33 33 30 34 31 33 24 24 26 30 31 41 49 51
88 55 56 63 59 64 57 48 44 42 42 38 36 37 40 37 28 30 34 35 34 41 41 42 44 41 40 32 35 43 37 32 31 31 28 37 25 26 31 34 34 34 48 48 50

GFSSW_925_rhum_099.txt.gz
RH
82 79 75 79 80 76 70 63 59 56 47 40 34 28 31 35 29 25 37 19 21 20 24 25 26 26 24 25 25 28 36 38 26 20 25 18 15 16 15 15 22 28 33 32 37
82 80 72 78 82 83 79 67 63 60 50 42 34 28 34 34 32 40 19 18 24 24 24 26 26 25 24 23 27 32 34 27 18 14 16 18 16 17 16 17 21 24 36 40 41
81 81 71 80 90 88 84 72 67 64 55 44 35 28 36 34 49 30 20 19 24 22 21 26 26 24 22 23 24 28 30 26 19 20 18 18 17 18 17 18 19 22 30 34 35
82 76 70 81 93 90 86 73 70 67 60 45 37 28 37 36 35 23 22 18 23 22 21 24 19 20 21 22 20 24 22 21 17 21 19 18 18 19 19 17 17 21 22 23 27
81 72 72 84 92 86 77 74 71 67 61 46 37 35 37 47 42 22 23 20 23 22 21 24 21 22 23 21 20 21 19 19 16 20 21 19 20 20 20 19 25 28 29 30 31
78 80 76 74 78 78 78 78 75 68 61 46 35 44 49 41 22 30 24 25 21 21 24 24 20 20 22 21 21 19 19 20 20 19 21 20 19 19 19 22 30 32 35 34 32
83 84 83 75 76 85 87 82 75 72 62 48 36 49 62 41 24 31 28 24 20 19 22 19 17 19 22 23 21 19 23 23 21 20 20 21 22 24 21 24 31 35 39 38 35
91 84 84 81 82 86 90 85 76 72 62 46 43 54 60 23 23 24 25 25 28 22 20 17 17 20 20 21 27 24 24 27 19 21 21 19 27 20 21 28 34 38 41 40 39
98 88 83 83 88 91 92 87 80 70 57 42 50 54 52 27 26 21 22 27 26 20 18 17 18 24 25 32 38 36 30 25 23 22 25 21 24 18 26 27 34 43 46 44 42
100 96 86 85 90 97 96 91 79 60 45 54 57 51 37 32 22 22 22 26 20 20 20 21 33 33 35 38 42 29 28 24 24 20 24 26 28 24 22 26 31 44 49 51 48
98 98 90 88 92 94 99 81 53 52 66 44 41 38 25 26 21 22 24 20 22 24 31 27 36 39 33 33 31 29 31 33 25 19 22 27 30 26 23 26 32 46 51 56 56
95 100 93 92 94 93 98 68 37 27 39 50 54 45 34 26 26 22 24 27 28 34 32 38 42 29 29 33 35 35 29 29 25 22 25 26 27 25 24 25 29 36 51 56 57
97 100 95 96 94 96 98 68 43 40 38 31 31 46 36 28 29 28 26 29 31 36 38 43 34 31 33 34 35 32 30 28 26 23 23 26 31 28 25 26 29 33 41 53 60
92 100 96 100 98 98 95 71 45 38 37 35 41 35 29 30 34 24 24 26 30 38 39 37 31 32 36 36 31 31 23 23 25 28 34 27 41 31 26 31 33 42 51 52 60
89 100 100 95 82 95 78 70 54 38 95 41 44 26 31 29 30 32 23 26 35 34 38 40 36 38 39 31 23 29 26 25 24 29 34 35 37 29 32 31 34 44 53 55 59
92 97 100 96 78 81 69 62 50 80 94 38 42 37 39 34 33 28 27 23 28 33 32 35 26 34 36 27 25 25 28 37 46 44 48 36 36 31 27 29 30 38 47 49 53
90 95 100 97 87 78 63 47 60 98 39 42 47 39 39 43 38 33 36 37 42 46 46 34 30 22 22 27 26 28 32 44 49 55 49 38 41 30 22 27 29 32 40 48 51
91 95 98 94 68 72 48 48 63 52 45 37 43 43 44 42 41 37 41 43 38 38 51 53 52 30 25 26 30 33 32 44 42 60 50 38 45 30 23 23 28 29 39 47 51
86 95 100 94 62 69 43 60 45 52 38 42 44 45 42 42 42 38 45 39 36 36 42 51 47 28 27 26 24 32 37 30 39 38 43 37 31 21 22 23 32 40 46 47 47
98 99 96 99 71 46 44 51 40 42 37 40 50 49 56 51 47 44 48 39 37 34 26 35 41 31 28 25 27 30 28 38 45 43 47 38 34 30 19 23 30 39 44 44 46
98 97 98 92 79 59 62 50 43 38 34 36 45 52 50 52 48 52 49 37 33 38 29 31 33 36 30 35 37 36 38 37 40 44 40 40 31 24 22 22 27 34 40 42 44
94 99 99 87 98 76 57 47 42 36 35 35 38 40 48 49 49 50 48 41 35 37 40 33 38 49 38 29 29 33 36 37 46 39 46 42 35 20 22 25 26 26 32 38 42
100 97 98 81 98 85 53 46 43 40 39 39 38 35 38 46 46 46 46 35 34 39 38 33 43 48 38 35 31 35 34 32 34 35 44 40 34 24 24 22 25 26 29 34 43
100 100 97 94 73 62 55 47 44 41 39 37 37 35 39 40 36 47 45 34 36 40 46 34 41 39 42 34 34 39 36 33 33 46 35 44 30 24 22 21 23 27 30 30 43
99 99 87 96 92 61 48 43 42 53 42 37 38 37 38 46 42 44 44 40 36 42 39 34 43 37 33 29 32 34 35 39 37 30 39 28 34 24 25 25 24 24 26 31 41
99 97 81 76 74 69 54 46 39 53 49 46 44 41 35 44 39 47 46 40 38 40 39 41 39 36 36 34 36 32 33 40 35 32 34 30 36 25 25 24 26 28 29 36 43
92 89 62 71 78 73 57 44 38 46 44 37 39 42 38 36 32 30 36 38 34 41 42 47 47 46 43 35 35 45 37 34 33 32 31 40 27 25 25 30 31 33 34 38 44

GFSSW_925_rhum_102.txt.gz
RH
81 78 80 76 74 83 81 79 70 63 58 53 42 38 27 33 33 28 37 20 24 20 26 25 28 27 25 27 27 28 40 41 28 24 27 18 16 16 16 16 24 29 31 32 44
86 82 78 79 72 79 82 88 81 66 58 54 46 37 28 37 37 39 21 20 20 26 25 27 27 26 24 24 28 31 39 32 20 14 17 18 17 17 16 17 20 27 39 45 52
90 85 81 79 70 77 87 92 84 71 63 56 45 39 30 37 46 29 24 21 23 28 23 27 27 24 21 23 25 29 31 26 21 20 18 18 17 18 18 19 19 24 39 46 52
96 89 85 81 70 76 94 93 85 73 66 60 47 38 33 40 35 24 25 23 22 25 25 25 19 20 22 22 23 24 23 25 18 23 20 19 18 19 21 19 16 23 37 38 44
98 94 89 85 70 77 92 93 80 74 67 64 50 36 38 48 45 22 27 27 26 25 21 25 22 22 23 22 22 24 21 21 19 19 23 20 22 20 21 21 23 26 27 28 32
96 98 88 83 77 84 91 86 84 77 72 70 54 39 49 45 22 26 32 34 27 23 23 25 22 22 23 22 22 21 20 20 21 21 22 22 20 21 20 26 31 32 33 34 34
94 97 92 82 82 82 85 89 91 82 74 69 51 50 69 47 26 36 34 30 25 22 25 24 18 20 23 24 22 21 24 25 23 22 22 22 22 25 21 27 32 36 39 37 36
100 100 97 88 87 82 88 92 93 84 75 64 47 59 63 22 26 22 26 28 28 23 21 18 18 22 21 23 30 26 26 29 19 22 22 19 21 19 20 29 33 39 44 43 39
100 100 100 94 88 86 90 94 93 83 75 55 53 56 51 26 31 19 23 24 29 27 21 19 20 26 26 34 38 36 33 27 25 23 25 22 24 18 27 29 32 41 47 48 45
99 100 100 97 92 91 93 94 92 84 65 61 63 52 34 28 26 23 21 23 21 21 21 23 34 35 37 38 46 33 32 29 29 23 25 26 30 26 24 27 28 40 47 52 51
98 97 100 100 96 96 96 99 66 60 72 44 43 33 26 25 24 25 27 22 23 25 33 29 36 42 34 32 32 28 32 38 32 23 22 28 30 27 25 29 31 38 49 54 56
86 99 97 100 99 98 94 75 46 32 44 53 60 52 40 30 26 24 26 28 29 36 35 37 44 32 29 33 34 37 39 36 29 24 24 28 29 26 25 27 25 29 46 52 58
91 86 94 98 100 100 99 83 48 44 45 34 38 50 39 31 32 29 30 32 32 39 41 44 34 33 33 38 39 37 34 35 34 25 26 30 34 27 24 28 26 30 35 46 57
83 74 95 93 100 100 97 84 52 54 41 41 41 34 34 31 34 25 27 29 33 39 42 39 32 35 39 39 38 45 31 28 25 28 36 28 43 30 24 30 31 33 49 52 62
75 85 82 99 100 97 92 84 72 57 96 50 41 27 33 31 31 32 26 27 38 38 40 42 38 39 38 37 33 39 26 26 26 30 36 36 43 32 29 29 28 34 49 56 60
80 85 84 97 100 92 78 73 77 83 94 53 44 40 43 35 35 31 30 26 30 36 35 37 32 36 37 33 27 28 30 38 47 44 50 37 40 34 24 23 26 32 46 55 62
83 83 88 100 98 95 86 82 94 96 42 50 55 43 42 47 42 37 39 40 45 52 52 37 33 24 24 30 27 28 34 50 46 55 53 39 42 36 23 23 29 27 40 51 54
82 84 94 100 96 99 74 85 98 62 60 44 48 46 46 45 43 41 46 47 42 42 55 56 55 33 26 28 33 36 35 48 44 55 52 41 49 34 25 23 29 30 33 47 55
85 94 100 93 90 98 87 97 80 58 44 50 45 51 49 46 46 41 49 40 41 41 46 58 54 31 29 26 27 35 38 31 41 44 47 39 32 24 22 25 29 38 48 52 52
98 93 85 73 92 99 90 94 65 41 38 44 53 51 58 56 51 47 51 41 43 37 32 41 48 32 30 27 29 31 31 38 47 44 47 41 36 29 22 21 27 37 46 50 50
99 97 76 58 99 97 95 86 63 39 37 41 52 58 51 56 52 50 49 38 36 41 32 39 37 38 32 36 39 37 37 40 41 47 43 40 36 28 22 23 25 29 38 46 50
95 98 60 94 98 95 95 65 40 42 39 37 43 47 52 54 57 53 51 41 39 36 39 33 39 52 40 31 31 33 37 37 48 43 54 49 41 21 23 25 25 24 29 39 44
98 96 63 96 98 98 82 70 41 40 45 41 40 38 43 52 51 50 49 40 44 38 41 36 47 51 42 38 34 36 36 35 36 40 49 48 40 23 26 23 24 23 23 28 41
99 99 95 98 82 78 86 72 53 41 43 38 40 40 44 46 40 53 52 38 42 41 51 36 46 44 52 40 36 39 38 35 34 52 39 48 33 24 23 22 22 24 27 28 32
99 99 97 100 99 76 68 64 56 54 42 39 41 40 42 52 46 49 47 45 40 45 49 37 48 45 39 33 37 39 39 37 40 34 42 32 34 26 23 26 26 25 25 28 32
100 98 96 97 91 84 76 67 50 50 41 42 47 44 39 48 40 51 49 45 47 42 46 42 46 44 43 40 37 36 36 42 38 35 37 35 37 26 25 25 26 28 28 29 31
95 88 94 96 96 93 86 69 49 50 44 35 40 42 41 40 36 37 34 37 40 45 48 48 51 51 54 39 43 48 38 39 39 38 34 42 28 24 26 28 28 27 30 32 33

GFSSW_925_rhum_108.txt.gz
RH
98 96 98 90 88 84 75 75 78 81 82 77 62 54 47 40 28 41 28 22 26 22 30 34 31 28 25 24 23 23 29 34 31 26 27 18 19 16 14 14 14 15 15 29 55
95 96 97 95 93 87 81 74 74 80 83 81 69 55 46 38 52 34 23 22 24 23 29 24 25 24 21 24 23 24 32 31 18 13 18 17 16 16 15 15 15 16 25 41 65
92 93 96 97 98 93 86 80 72 82 87 82 70 60 46 34 34 18 31 32 23 24 29 24 23 22 22 22 22 24 28 23 16 16 14 15 15 14 15 18 15 14 13 33 50
99 98 98 97 100 100 90 84 76 82 92 83 69 61 46 52 25 24 24 30 26 44 27 25 21 24 24 24 21 24 19 18 18 18 18 17 16 15 15 14 12 12 14 26 35
99 98 97 99 98 100 94 89 77 84 92 82 72 64 46 30 22 18 20 29 39 40 23 23 21 19 25 22 20 22 18 18 17 17 19 19 17 16 16 13 13 15 20 24 26
93 98 99 99 96 99 98 91 80 88 90 82 75 66 44 33 19 20 37 48 40 30 23 23 18 17 17 18 20 18 19 17 17 16 17 19 16 19 13 14 14 16 17 21 26
89 95 99 99 100 99 100 94 84 90 86 86 77 68 47 28 22 36 39 40 36 28 22 22 20 18 19 22 20 19 21 19 18 18 19 19 20 20 13 15 14 15 15 20 25
81 87 96 92 99 100 100 96 89 86 86 87 77 68 39 28 28 27 29 30 31 28 23 22 20 19 20 20 21 22 22 22 17 18 19 19 16 13 14 15 15 14 14 19 20
66 85 92 85 89 100 100 92 93 90 87 84 71 52 34 27 30 23 22 26 27 27 23 21 19 21 22 22 24 25 21 23 20 18 19 19 17 14 18 17 15 14 14 17 19
72 70 87 80 81 98 95 99 94 100 94 86 66 47 30 23 24 28 25 24 27 24 22 21 21 23 22 24 26 24 25 23 23 20 22 22 21 16 14 15 16 13 13 15 18
78 62 69 86 80 90 99 100 100 94 83 50 41 31 23 23 28 26 26 24 22 25 27 23 24 26 21 21 20 22 23 24 20 23 26 25 23 19 16 15 17 14 13 14 17
79 80 71 84 86 79 98 98 66 53 78 62 47 41 37 36 25 25 25 25 27 32 26 30 28 20 19 22 26 25 26 26 23 24 24 24 24 19 16 15 14 14 14 13 16
88 81 78 77 86 75 93 92 91 40 56 56 54 40 33 32 24 23 22 21 28 30 30 29 25 24 25 28 29 27 27 25 28 24 23 24 23 20 16 17 16 16 15 13 14
91 84 78 82 69 92 90 88 90 69 91 64 58 42 33 25 30 21 24 21 28 31 29 29 25 30 28 27 26 29 25 27 28 32 32 23 31 21 19 18 15 15 15 16 16
80 88 84 84 75 72 95 97 96 88 98 51 40 27 27 28 26 28 26 26 26 30 31 32 33 32 32 29 26 28 27 29 30 30 29 28 34 22 19 18 13 14 18 18 18
89 93 89 88 86 80 71 92 99 99 96 63 38 42 38 31 29 30 30 25 22 26 32 27 28 26 26 25 27 26 27 29 31 30 40 28 30 26 17 12 13 14 15 20 22
89 94 84 89 78 74 90 89 99 98 71 64 46 39 33 37 34 29 33 34 33 40 40 33 33 29 28 31 30 27 29 39 40 43 38 28 31 24 16 14 14 14 14 19 24
86 91 93 84 86 84 86 99 97 81 79 43 43 39 38 32 35 33 34 35 28 28 31 41 44 32 27 27 31 31 30 34 45 36 30 34 32 20 16 15 14 16 18 21 27
87 84 94 87 87 90 95 98 86 91 54 45 42 43 39 33 32 34 35 34 30 28 34 38 37 28 26 25 24 33 39 26 33 33 38 27 22 18 13 12 17 18 24 26 28
90 83 79 85 90 89 100 92 85 80 49 38 45 38 44 39 38 36 35 30 31 28 22 31 38 32 29 25 27 27 24 37 35 44 45 30 28 22 15 15 17 17 22 26 32
89 88 73 81 89 92 97 81 56 51 68 42 39 45 36 40 35 38 32 29 26 30 24 26 29 37 32 32 31 31 32 29 27 30 34 33 26 15 16 17 18 18 19 25 30
85 100 74 88 95 76 90 67 51 60 58 61 46 37 37 36 38 37 34 30 25 29 34 26 28 34 36 27 26 25 28 27 35 36 33 32 31 15 17 17 19 18 18 22 28
96 81 76 85 99 94 62 70 55 66 77 68 44 36 37 38 42 35 34 30 30 31 31 28 33 39 39 34 31 33 30 27 27 27 35 37 29 18 17 18 17 19 17 18 26
94 93 93 95 92 85 82 57 59 43 61 77 43 39 39 37 33 40 39 43 33 31 44 31 31 33 37 32 27 35 32 30 30 36 35 32 29 21 19 18 18 16 17 18 21
94 82 80 94 91 83 77 73 60 56 57 68 67 42 34 40 38 40 37 44 43 39 37 29 38 33 29 28 28 28 30 30 32 29 32 27 26 22 19 18 18 17 17 18 18
86 97 86 97 84 94 80 80 81 50 72 82 82 52 37 36 33 43 36 33 36 46 35 33 37 34 38 32 31 33 30 27 28 27 26 26 26 19 18 17 19 18 18 20 21
87 84 91 70 68 97 95 75 88 57 53 63 62 56 53 35 27 28 30 29 33 37 37 37 38 40 44 33 37 46 36 31 29 27 26 32 25 20 20 21 21 20 19 20 20

GFSSW_925_rhum_111.txt.gz
RH
91 94 96 98 100 96 92 85 75 71 77 82 80 69 54 44 34 36 25 19 25 28 26 29 32 26 24 24 22 21 27 29 28 27 24 19 21 16 14 15 16 16 14 25 39
98 96 96 98 99 100 96 90 83 74 71 81 82 72 58 46 48 27 20 18 20 25 29 23 23 21 21 23 23 25 28 25 21 17 21 19 18 17 16 17 16 15 21 33 42
98 98 96 96 97 98 100 97 90 82 71 82 87 74 58 42 30 18 25 28 21 25 28 20 17 19 21 19 22 22 28 23 19 13 12 17 17 14 17 21 16 16 16 28 38
89 98 98 98 97 96 99 100 94 87 76 84 87 74 59 51 33 21 23 25 30 34 29 21 18 23 23 23 18 23 20 20 19 16 15 15 14 14 14 16 12 11 10 20 30
72 88 95 98 98 98 97 100 98 89 78 86 88 74 59 37 29 19 18 32 44 39 26 19 19 19 22 18 18 21 17 17 16 16 16 15 16 16 15 12 11 12 12 13 18
79 72 92 96 98 99 97 97 100 94 80 88 85 75 56 46 24 20 30 39 33 34 23 17 18 14 16 17 18 15 16 16 15 16 15 17 15 13 12 10 11 11 13 13 13
80 81 73 93 96 98 100 98 99 98 83 89 83 80 48 38 21 26 35 36 33 31 20 18 18 16 15 17 15 16 18 15 15 14 15 16 18 15 11 11 11 11 12 12 13
80 84 76 78 97 80 87 99 100 98 95 87 86 70 51 29 30 26 27 28 31 28 22 18 19 17 18 17 19 20 18 21 14 15 17 18 16 9 11 11 12 12 10 10 14
91 88 85 71 84 85 75 89 96 100 96 91 81 59 41 30 29 26 23 23 26 25 23 19 18 19 19 22 21 20 19 19 17 14 14 17 15 12 13 13 12 11 10 10 13
89 94 79 77 65 86 75 79 88 100 99 94 65 50 37 28 22 21 20 18 23 23 22 20 19 22 21 20 25 21 21 17 18 18 18 18 18 14 13 12 12 12 10 10 11
91 92 81 80 78 88 78 76 100 99 96 74 60 41 21 24 23 22 18 18 23 25 27 22 25 25 20 18 16 16 18 19 15 16 24 22 19 16 14 14 14 13 12 10 10
88 95 85 81 85 85 85 88 89 99 94 68 48 40 27 29 24 19 19 22 26 31 23 24 28 18 17 16 18 19 22 21 17 16 24 22 21 18 16 15 14 13 11 11 10
89 82 93 79 82 88 82 76 74 94 95 72 62 51 33 30 26 22 18 18 26 28 25 25 24 18 18 19 21 23 23 22 21 19 19 21 24 19 14 14 14 12 12 11 10
91 86 91 87 78 62 74 100 98 100 98 84 80 68 43 30 33 18 19 17 23 27 25 26 19 22 21 24 23 27 19 21 25 25 29 20 33 21 16 15 14 14 12 12 13
91 84 91 94 82 68 68 89 76 99 98 61 56 41 40 32 26 27 19 16 24 25 24 30 26 27 28 26 21 24 20 21 26 28 27 24 28 21 17 18 15 14 17 15 14
96 87 90 74 73 67 62 81 79 100 96 76 48 49 47 41 27 24 25 20 19 23 23 25 22 23 25 22 22 21 26 27 28 28 35 24 25 23 19 15 10 10 10 11 16
96 90 91 77 76 66 73 75 99 97 84 88 56 44 43 44 32 30 32 34 32 35 35 32 28 25 24 27 26 27 28 37 37 41 36 21 27 23 18 15 13 13 12 12 17
91 93 76 69 67 70 79 98 96 73 79 54 45 42 45 35 34 31 33 36 28 28 31 39 40 30 27 26 32 32 29 33 42 34 28 26 31 21 14 12 12 12 13 14 16
86 71 62 66 74 73 92 99 87 60 64 52 43 49 50 38 31 30 33 32 29 27 36 34 34 23 24 23 23 29 36 23 29 25 31 27 22 16 14 14 11 13 13 16 20
86 71 64 60 75 79 96 90 79 55 67 74 62 43 50 45 38 32 35 28 29 25 23 24 34 27 26 24 23 24 23 35 33 46 46 32 28 25 15 14 14 14 16 19 24
84 79 48 64 82 96 95 76 46 40 49 95 64 44 38 49 40 33 33 28 25 26 23 24 27 36 29 32 32 32 32 28 26 30 37 34 26 15 16 14 16 15 15 18 24
80 89 62 78 98 97 87 56 44 40 37 53 92 78 45 32 39 32 33 28 22 25 30 24 27 34 35 24 23 25 27 26 34 33 29 31 30 14 13 14 16 16 15 17 23
92 60 52 73 98 89 55 49 44 44 44 93 92 67 39 36 38 32 30 24 24 26 30 27 33 38 35 32 28 31 26 25 25 25 30 33 29 15 15 16 15 16 15 16 23
95 80 69 88 90 95 65 51 47 39 42 42 91 78 58 48 31 39 31 36 26 26 41 31 31 34 36 34 27 35 30 26 27 32 32 30 26 20 18 18 17 15 15 14 19
94 77 62 76 74 97 94 93 69 48 42 42 81 92 81 77 42 52 31 40 33 34 33 29 37 30 28 23 25 26 29 28 30 28 31 27 25 21 19 18 17 15 16 16 15
100 83 54 67 54 55 76 71 70 55 52 49 85 82 70 63 54 54 32 36 37 30 32 29 37 32 34 27 27 29 27 27 28 27 27 25 26 18 16 15 16 15 15 17 18
81 69 77 61 54 65 70 83 90 63 56 50 36 52 74 59 36 33 26 27 27 33 35 34 35 36 42 32 32 40 31 27 26 24 24 29 23 19 19 18 18 18 18 17 16

GFSSW_925_rhum_117.txt.gz
RH
77 81 82 89 95 98 94 95 98 97 99 91 82 72 67 73 70 60 58 32 23 23 24 26 32 32 33 34 31 29 48 58 44 34 30 23 24 19 16 20 22 27 37 34 40
79 79 78 81 83 96 97 100 100 99 95 99 90 78 67 77 72 67 33 34 26 21 26 28 35 36 39 32 36 40 55 44 24 19 27 23 25 22 20 21 24 45 46 41 41
78 77 81 79 82 80 96 99 100 100 97 99 97 86 72 75 80 47 31 23 31 24 20 23 30 32 36 32 36 35 46 34 30 17 18 21 20 17 22 24 23 39 50 49 48
86 77 82 78 81 75 81 96 98 100 99 94 100 91 82 74 62 31 24 20 26 19 22 34 36 31 36 36 30 37 32 29 29 19 17 17 16 20 20 22 16 21 47 52 55
84 90 88 86 86 86 74 87 90 87 99 98 97 97 91 86 66 31 28 33 27 23 27 39 40 31 35 32 31 33 32 27 24 22 19 19 20 19 19 19 18 31 47 52 53
89 90 86 90 93 93 90 77 93 96 95 99 96 100 88 92 51 34 29 34 31 37 33 36 35 28 27 31 32 26 28 25 22 22 20 20 20 20 20 18 17 20 42 50 52
86 88 89 89 93 91 94 85 88 95 80 78 85 100 91 78 48 32 33 26 29 44 35 31 32 24 23 22 21 23 22 22 22 22 23 22 26 25 21 20 19 17 22 24 36
88 88 93 91 94 94 93 90 88 93 61 76 84 100 89 69 59 54 37 35 30 32 38 27 29 25 26 23 21 22 23 30 24 20 20 21 31 23 22 21 22 20 20 21 22
81 89 94 91 90 94 95 93 88 57 63 69 97 99 88 65 67 48 43 39 32 30 32 30 28 27 27 32 36 31 36 32 29 21 23 24 28 22 18 15 17 18 17 18 20
77 84 95 95 88 94 95 90 50 74 68 71 92 97 85 73 49 54 37 33 30 34 34 34 30 35 38 42 53 42 37 30 30 23 24 27 26 22 19 17 18 18 17 17 18
81 78 88 95 89 90 91 79 78 88 83 88 80 66 54 60 43 35 37 32 32 37 51 39 42 44 36 35 31 30 29 32 26 23 23 28 26 24 22 23 24 24 24 22 20
78 78 81 93 93 86 87 91 78 96 92 59 58 78 56 47 50 34 33 38 39 47 44 45 48 35 30 30 32 30 32 33 26 23 24 28 30 28 26 24 22 22 26 24 21
69 75 82 92 73 79 77 80 85 79 99 71 58 64 74 60 64 37 26 34 37 44 47 46 40 31 29 30 31 31 34 31 29 24 27 26 36 31 26 25 22 20 24 23 23
81 75 79 93 73 72 70 78 81 80 98 85 78 67 65 53 67 42 24 30 31 40 43 46 33 33 33 31 27 33 26 25 28 32 43 28 54 34 27 24 22 24 26 24 22
76 80 76 87 94 91 62 67 77 79 97 48 66 53 60 71 57 51 36 27 34 42 44 48 42 39 35 31 26 29 26 28 29 35 38 37 50 41 28 26 23 23 25 25 22
77 78 74 75 84 76 68 67 74 98 94 67 69 85 87 69 60 46 42 35 26 34 35 38 30 32 31 25 24 26 29 31 37 43 57 45 46 49 31 24 21 22 21 20 19
80 80 75 75 82 74 67 80 99 97 58 64 84 77 79 79 72 61 58 50 43 56 54 40 39 30 27 33 31 27 37 56 58 63 59 38 40 39 27 23 20 18 21 19 23
75 75 78 77 66 78 80 96 97 64 50 42 44 70 86 71 71 68 63 81 45 41 57 52 59 37 33 32 38 32 36 53 67 70 56 37 47 34 24 20 19 18 18 24 26
78 81 82 66 58 77 98 97 87 69 42 74 71 94 91 74 72 73 70 79 56 34 48 52 48 34 32 30 28 41 43 32 45 42 54 46 35 26 20 21 18 19 20 20 23
93 91 76 59 71 78 99 92 87 49 42 57 95 94 99 89 87 79 76 66 65 36 30 41 50 34 37 31 32 33 32 45 54 64 65 54 43 38 28 24 22 22 24 31 29
92 93 57 66 73 95 98 93 64 51 45 69 89 97 93 100 90 88 72 62 52 38 33 32 39 41 40 42 40 45 43 44 42 56 59 63 54 35 26 25 24 24 24 34 35
90 94 48 59 100 97 90 73 62 69 49 55 58 61 64 92 100 100 85 63 50 37 38 30 55 49 44 35 30 32 38 37 49 58 50 58 54 21 25 26 25 25 23 28 37
97 81 62 67 99 97 96 88 96 66 61 55 55 63 52 82 100 99 94 56 48 40 34 35 60 78 59 43 37 41 36 37 39 45 55 52 49 25 24 25 24 26 26 32 38
99 97 90 90 91 84 92 92 84 65 77 71 62 49 80 89 73 96 81 74 46 48 48 39 71 86 73 56 39 45 41 36 38 48 46 45 38 28 25 28 26 25 26 34 38
100 95 86 96 88 98 98 96 76 74 74 74 66 60 58 68 66 89 90 92 76 65 53 43 86 72 55 43 38 38 40 39 40 36 44 36 36 30 29 26 24 24 26 32 38
100 98 92 99 75 72 71 78 64 57 82 76 83 65 51 57 55 64 81 95 98 80 63 68 83 65 59 43 37 40 38 38 38 35 36 35 40 29 26 28 25 25 27 28 33
86 89 99 81 79 80 82 67 65 56 60 62 68 87 91 64 54 48 81 95 96 100 97 85 76 67 74 47 49 63 41 39 36 33 34 42 32 30 29 29 29 26 25 26 27

GFSSW_925_rhum_123.txt.gz
RH
82 84 86 87 85 85 76 73 82 87 96 98 98 98 98 95 99 92 82 54 34 29 24 34 33 32 36 42 41 44 59 68 52 49 40 27 25 22 23 31 30 36 52 43 54
74 80 86 88 89 87 88 89 87 83 84 96 98 93 94 96 100 95 67 52 54 32 30 36 34 39 49 42 42 48 64 56 44 24 25 29 27 25 25 33 37 42 46 51 63
63 76 84 90 88 86 86 88 90 90 84 83 96 97 89 96 95 70 46 38 42 60 46 35 32 41 49 41 42 48 57 46 36 30 25 22 24 23 29 29 37 40 51 57 64
65 64 86 86 88 83 86 86 87 87 88 84 90 98 93 97 90 39 45 48 44 62 66 37 39 43 48 49 39 44 43 36 35 29 30 25 21 23 26 25 23 36 52 57 61
66 64 72 85 88 89 86 84 84 84 85 88 86 96 94 96 84 45 43 49 54 53 49 38 44 45 46 42 39 41 37 36 35 35 32 26 24 21 22 22 22 54 58 56 58
70 75 70 82 87 89 91 87 86 85 89 90 89 91 94 98 72 62 60 61 59 46 39 38 40 39 41 40 42 34 36 34 32 33 30 26 26 23 21 22 25 59 62 58 57
73 69 75 83 83 84 87 87 86 86 90 91 89 90 84 85 73 75 68 56 51 57 59 34 32 37 39 34 34 34 38 37 34 30 31 28 31 30 22 22 24 47 66 64 60
70 71 78 82 83 79 84 87 88 86 83 88 89 86 87 70 70 62 69 74 64 68 58 53 31 40 34 31 30 30 37 45 30 29 27 28 37 32 26 25 25 27 41 66 64
72 71 74 75 75 78 80 87 84 74 85 84 84 86 80 60 71 59 66 70 67 62 46 38 40 44 37 51 56 42 44 39 32 31 26 32 35 30 25 28 28 28 30 30 46
76 72 82 80 77 79 82 86 51 65 83 90 78 79 72 73 65 70 70 71 68 62 49 44 52 55 55 51 65 57 41 37 37 28 30 34 36 29 21 28 27 26 27 27 29
77 82 80 81 81 83 81 83 79 70 70 69 69 70 59 59 58 67 71 72 71 66 82 56 70 76 60 46 42 40 39 39 32 26 29 34 29 24 25 24 25 26 26 24 23
78 85 84 84 85 82 88 85 87 94 93 70 65 62 55 53 67 64 64 84 83 92 70 59 68 57 50 46 45 41 42 42 34 29 28 32 35 29 27 27 23 23 26 26 24
76 84 87 90 71 81 74 61 79 78 92 64 63 57 50 41 54 64 65 73 78 84 67 69 52 49 50 52 49 44 43 42 38 30 31 31 39 33 28 29 27 27 23 26 25
78 80 90 87 69 75 68 73 55 79 95 66 80 64 52 43 64 49 57 67 65 83 70 58 44 52 58 52 44 53 36 38 38 38 51 33 54 38 33 31 30 26 28 28 28
78 82 87 91 86 86 68 72 59 84 93 39 65 49 48 52 54 60 55 60 70 60 59 64 54 51 62 54 40 44 36 39 41 42 40 43 52 45 33 33 29 24 26 27 25
80 86 83 84 82 76 73 70 70 96 93 53 58 71 77 58 53 66 77 65 47 50 52 54 44 41 48 41 39 36 36 38 45 51 60 42 46 47 39 32 25 26 25 27 29
84 86 82 84 76 73 73 80 94 100 50 49 49 40 50 94 68 60 76 84 67 82 90 66 54 45 39 47 41 36 42 58 63 69 57 43 54 36 35 29 23 21 23 27 28
86 84 82 78 67 80 81 92 100 57 53 34 42 43 45 54 86 68 72 96 64 69 84 90 82 50 41 43 46 43 41 64 83 80 50 51 61 43 32 23 24 26 26 24 28
86 78 79 56 68 84 86 96 81 54 48 57 52 58 78 99 94 89 74 70 83 74 89 88 90 48 44 38 35 47 47 33 53 54 65 57 48 34 31 31 29 28 24 23 25
87 84 86 68 76 83 96 79 72 52 46 58 80 57 79 59 82 94 91 67 62 72 61 73 93 51 44 40 37 37 34 50 46 72 78 64 57 44 35 30 31 28 26 24 26
82 91 57 82 83 98 96 90 65 44 42 58 69 76 68 73 70 72 93 72 87 63 71 57 58 56 46 51 53 45 42 40 41 58 58 68 55 43 29 28 29 27 25 24 26
90 96 83 77 97 97 97 72 49 54 56 99 88 80 79 72 83 79 78 87 73 98 98 71 72 86 59 40 42 41 46 39 52 61 46 62 43 29 32 28 27 27 25 26 28
97 82 80 79 98 98 94 92 76 82 72 74 74 68 61 69 93 86 84 83 99 100 99 93 70 96 84 50 45 50 38 34 38 42 60 52 44 32 30 28 32 27 27 29 34
99 97 89 98 90 87 96 90 85 73 80 76 76 75 78 83 69 80 66 51 53 88 95 97 100 78 70 68 55 59 45 38 38 46 44 45 37 34 31 30 30 31 27 29 37
99 94 82 98 93 97 98 93 89 83 64 75 76 88 94 96 74 81 65 63 57 65 95 100 95 97 74 59 51 52 50 52 41 37 45 37 40 33 32 30 30 30 30 33 40
98 97 80 74 79 99 86 90 77 61 64 69 78 70 79 89 76 90 77 75 90 98 100 100 90 94 94 69 60 61 52 49 41 36 36 36 38 33 29 29 28 31 32 34 39
99 96 92 88 95 97 90 81 76 67 59 58 62 68 70 62 54 58 58 61 66 82 90 97 96 95 95 69 72 92 66 52 50 40 36 43 34 38 34 34 30 30 31 30 34

GFSSW_925_rhum_129.txt.gz
RH
74 74 72 70 79 83 86 86 87 86 86 87 85 86 88 91 81 73 82 76 82 68 72 66 44 51 42 50 52 53 62 67 58 58 47 32 32 27 27 32 38 38 35 48 80
73 73 71 70 71 72 84 86 85 89 86 82 82 84 89 88 82 79 66 74 84 86 87 84 46 44 49 52 54 55 64 59 49 47 32 28 31 28 29 35 37 43 66 89 98
74 73 73 66 74 69 82 79 79 84 84 85 75 84 92 93 80 51 20 55 77 67 88 88 60 46 56 55 53 55 57 49 45 41 29 31 27 28 32 39 34 36 56 92 93
76 74 72 74 72 73 73 78 73 70 77 80 83 83 93 88 73 49 62 75 73 68 82 87 47 54 61 58 49 58 52 46 41 41 36 35 27 25 33 29 27 33 56 84 90
77 76 73 74 72 73 74 74 73 74 76 78 82 82 85 85 76 41 65 68 70 78 89 79 74 52 55 59 52 54 49 46 40 40 39 33 34 31 28 28 33 48 64 72 79
79 82 80 76 75 74 79 75 74 74 74 77 79 82 84 93 58 50 53 56 66 68 66 77 54 47 47 48 55 49 46 42 42 43 38 35 34 30 26 25 44 56 57 62 68
84 81 88 86 78 80 82 76 75 77 76 72 78 82 78 74 61 57 55 57 63 77 68 58 68 44 45 47 43 44 47 46 44 39 39 36 39 35 26 26 35 51 53 61 62
84 85 87 84 83 84 82 79 80 78 73 72 79 80 82 65 61 65 56 54 56 48 77 77 62 48 48 39 40 49 49 56 41 40 38 36 49 36 28 26 26 33 52 59 60
83 82 86 85 90 86 83 83 73 69 76 76 87 86 77 53 64 58 57 66 63 64 67 74 70 63 49 57 58 51 52 57 45 39 36 38 39 30 30 28 26 25 28 53 55
83 80 83 84 88 87 87 75 34 66 60 80 82 88 72 55 58 54 52 59 70 58 78 80 86 76 64 57 68 66 57 45 46 38 39 43 42 32 28 31 27 25 25 27 41
83 82 83 84 89 89 81 55 76 69 63 72 69 68 61 54 54 48 46 42 60 68 96 80 96 92 76 59 42 50 49 47 39 31 39 38 34 31 30 32 32 30 28 28 28
85 83 87 83 92 92 77 74 88 81 88 59 58 61 55 52 67 51 45 50 84 89 74 90 93 70 60 64 66 48 52 48 39 31 36 36 38 32 31 28 27 25 24 26 25
90 85 88 85 84 78 76 69 70 78 97 58 49 56 59 58 71 64 42 43 69 87 73 87 74 62 68 67 76 71 53 51 43 37 35 36 40 36 31 30 27 26 24 21 21
92 89 88 87 80 77 73 60 65 75 90 60 65 61 55 52 68 45 43 42 50 80 66 75 61 72 70 78 64 78 52 44 44 47 70 36 46 41 33 30 30 26 26 24 23
93 90 84 89 78 84 65 61 62 76 63 26 50 50 58 60 59 58 43 45 61 81 71 61 66 75 80 75 58 73 52 50 46 48 56 50 53 40 33 32 27 26 28 28 26
93 86 86 94 90 79 70 62 66 77 84 46 42 40 46 39 40 56 58 44 46 58 76 65 44 55 67 57 58 56 54 52 49 51 94 68 57 47 37 34 29 24 22 26 27
95 85 89 87 85 73 70 65 79 77 39 36 47 44 40 68 70 64 66 75 76 95 90 92 77 56 59 67 62 65 84 97 97 94 85 57 69 51 38 32 25 22 21 25 26
88 90 88 88 86 75 64 76 78 46 50 41 44 42 47 68 66 64 62 80 76 86 96 96 97 64 61 65 74 69 91 93 88 89 60 59 76 50 38 31 28 27 24 26 26
93 97 93 87 87 84 85 96 80 55 42 50 48 52 67 80 66 63 57 60 70 100 99 99 91 62 54 54 56 78 94 56 72 60 64 59 46 37 37 35 32 29 30 27 28
98 92 87 74 77 84 96 81 67 51 50 55 75 58 94 74 68 78 78 48 59 71 99 94 97 64 58 53 52 62 56 78 76 96 78 66 55 38 40 32 30 29 29 29 30
93 99 81 78 89 99 95 87 70 54 52 58 67 75 72 69 76 85 78 60 84 81 90 100 100 93 63 69 63 72 69 71 80 92 65 68 54 42 34 28 26 24 25 29 28
98 98 93 90 99 98 98 77 56 57 54 65 72 76 80 75 95 88 82 80 85 92 90 97 99 94 100 62 46 56 55 69 81 98 80 57 43 33 30 28 28 26 27 28 28
99 96 97 93 97 97 91 90 81 72 70 73 78 80 74 93 96 94 83 75 97 98 90 85 93 93 94 94 68 61 54 56 58 67 72 64 50 33 34 34 31 30 29 28 29
100 97 99 100 90 82 94 93 87 76 80 77 90 87 87 91 79 94 68 61 56 63 73 98 91 91 89 94 98 98 79 58 60 66 56 62 45 36 30 31 32 32 30 27 31
100 94 78 97 97 92 88 92 93 82 75 68 78 84 82 92 89 88 59 63 54 77 98 100 94 92 89 68 91 93 95 87 72 66 62 48 54 40 33 29 28 28 32 29 30
98 97 89 91 78 95 94 92 84 70 69 72 74 60 66 92 70 92 75 72 80 83 93 91 89 76 75 50 52 61 93 99 89 72 72 67 58 38 32 32 31 30 30 30 30
100 89 90 91 95 94 85 74 78 66 61 52 55 78 78 67 55 59 64 62 63 72 83 89 89 89 81 57 57 67 53 79 94 83 82 84 54 40 39 32 28 30 33 30 29

GFSSW_925_rhum_132.txt.gz
RH
79 75 75 73 73 78 73 78 80 84 84 86 83 82 77 89 86 67 53 50 62 77 86 74 64 49 42 39 38 32 40 35 31 30 24 25 27 21 18 19 21 24 22 31 56
81 76 75 74 75 70 75 74 81 77 74 78 85 85 81 90 79 60 42 52 63 76 73 67 59 42 40 39 42 39 38 32 24 24 26 21 24 22 24 22 23 29 44 46 64
83 79 74 72 75 72 74 74 74 74 74 74 72 80 86 81 64 31 70 64 59 72 72 65 60 60 43 35 39 40 35 28 27 28 23 26 25 22 24 25 19 23 40 53 64
88 82 76 77 73 74 74 75 76 74 74 74 75 76 84 67 46 66 62 62 70 75 76 68 72 81 52 43 33 42 31 29 26 30 31 29 25 22 23 21 16 17 31 51 62
90 83 79 82 77 77 76 77 78 76 75 75 76 76 73 66 56 46 52 56 49 57 67 60 79 76 63 37 35 38 33 28 28 30 29 29 31 28 25 19 19 21 38 49 49
89 85 83 83 87 85 78 80 78 76 77 77 76 73 65 91 46 48 55 57 61 59 61 68 70 56 53 44 37 32 35 31 30 31 30 32 31 29 25 18 20 29 37 40 40
88 83 86 87 93 85 82 82 80 79 76 76 75 68 61 63 52 52 53 49 43 50 51 62 62 66 52 52 35 35 42 36 31 28 33 30 36 32 26 23 20 25 27 32 36
89 86 87 88 90 86 87 84 81 79 74 65 72 65 72 54 55 57 53 46 48 44 44 53 69 73 61 39 36 41 42 52 34 31 29 33 34 24 22 24 23 18 23 32 34
91 90 89 84 87 90 88 85 82 72 65 71 72 61 57 48 52 56 56 54 55 58 44 39 69 87 64 69 55 40 48 48 40 27 30 33 34 22 20 24 23 20 17 27 32
99 95 93 84 86 89 88 85 60 67 63 55 72 80 56 45 48 52 49 48 41 56 50 60 77 89 94 79 92 62 45 36 40 32 32 30 32 18 17 22 24 20 17 17 26
97 97 95 85 89 91 89 65 42 43 44 35 30 57 39 30 34 33 35 37 38 52 63 50 91 87 73 77 57 44 38 39 32 29 32 33 27 24 18 20 21 18 19 18 17
98 99 95 85 87 93 74 53 58 58 72 40 41 42 39 38 50 38 35 40 36 58 50 56 92 62 56 55 70 55 48 43 35 29 34 31 31 22 19 18 18 18 18 18 17
97 100 92 87 86 84 74 62 81 82 62 33 36 39 40 43 54 50 39 37 41 37 50 59 48 48 59 61 73 66 58 56 41 34 31 33 37 29 23 21 20 17 15 15 17
99 97 94 92 87 82 65 70 70 81 62 32 46 46 45 48 60 34 37 44 40 42 37 68 41 44 60 70 68 85 52 47 45 41 52 35 43 28 24 24 22 20 19 16 15
100 94 96 90 75 71 63 64 70 81 68 25 45 46 33 26 28 33 36 39 56 48 40 55 51 46 69 60 61 73 53 54 53 56 45 45 46 30 21 26 22 19 18 17 16
99 95 96 100 84 78 65 55 67 56 62 32 36 32 26 22 24 35 40 39 40 53 44 46 55 52 38 53 56 58 67 62 59 73 84 54 47 38 29 25 21 18 17 17 16
96 96 98 98 91 81 56 54 67 67 26 28 36 32 32 28 28 47 39 36 57 78 68 40 40 51 53 67 58 73 84 98 98 98 87 50 58 44 26 22 21 20 17 15 14
100 99 99 94 84 67 59 73 89 44 30 26 36 33 38 45 42 49 35 33 33 79 88 75 48 50 62 55 76 68 90 77 84 79 54 38 61 42 29 25 25 21 18 16 15
100 100 100 100 87 70 76 91 79 42 30 40 35 45 45 56 48 45 29 32 52 81 93 91 61 48 47 44 41 74 90 72 80 73 42 42 37 26 28 28 26 24 20 18 18
98 99 100 100 96 90 91 76 67 36 39 40 56 46 65 46 57 58 52 34 42 60 99 89 91 41 61 52 47 48 53 90 96 96 85 46 37 32 30 28 28 27 27 23 20
94 99 99 96 99 98 89 81 67 41 39 47 51 58 53 66 66 65 68 47 40 62 81 98 92 53 63 98 81 73 68 70 57 68 76 58 37 24 24 24 23 22 24 24 24
98 98 100 100 98 89 85 79 52 47 42 51 54 55 56 56 74 70 69 61 53 84 83 71 94 82 60 75 97 50 49 67 86 100 59 40 31 23 19 20 21 21 19 24 25
100 99 100 95 93 90 94 93 76 55 49 51 57 58 54 68 87 74 67 52 66 77 99 89 82 80 54 80 95 99 49 42 43 32 50 46 33 23 25 24 24 23 25 23 25
100 94 100 100 85 75 92 91 86 54 59 51 53 59 76 77 57 85 87 44 50 44 56 83 88 83 82 95 97 96 95 78 57 58 45 38 30 23 23 25 24 26 24 23 27
100 94 65 94 96 81 92 92 73 76 61 59 60 63 63 69 61 68 52 50 43 56 67 85 86 83 86 67 92 94 96 96 96 58 48 35 35 26 21 22 24 25 25 24 25
98 95 89 94 72 95 91 86 81 75 62 54 61 45 41 60 54 59 59 60 62 52 69 75 67 58 58 44 63 76 63 85 93 98 41 31 29 23 22 21 23 22 25 25 22
100 98 87 87 91 94 83 67 81 72 55 48 43 45 49 46 42 47 52 52 52 68 74 69 63 60 57 51 51 54 41 44 75 82 76 46 32 24 27 27 23 23 26 24 22

GFSSW_925_rhum_135.txt.gz
RH
86 84 82 78 76 79 76 78 76 75 75 75 74 74 78 85 82 53 41 40 38 47 55 68 64 48 41 37 31 24 28 31 30 31 24 18 19 13 11 14 15 15 17 20 33
88 86 84 80 77 76 76 76 77 77 76 75 74 74 76 79 68 42 58 65 64 53 68 58 54 46 41 39 36 41 42 35 23 22 22 20 18 16 17 18 18 17 29 31 42
91 89 88 83 78 78 77 78 79 78 77 76 75 75 75 72 52 44 64 63 74 61 53 50 44 46 65 39 36 38 49 27 23 20 19 21 20 18 20 22 17 20 29 39 40
90 90 91 86 80 81 79 80 80 79 77 76 77 76 76 58 48 56 54 51 59 59 56 53 42 50 68 68 38 41 33 33 27 20 23 27 20 19 20 21 16 16 22 38 42
96 91 91 88 81 84 82 84 82 80 79 77 78 77 67 49 44 36 39 40 44 51 56 55 53 50 64 58 47 39 33 29 26 24 23 24 26 20 21 18 17 17 25 36 38
99 96 91 90 84 85 88 88 81 81 80 79 78 76 59 63 34 36 36 43 40 41 44 48 65 43 50 56 53 36 33 30 27 26 24 26 27 23 23 21 19 18 26 32 34
100 99 94 91 86 88 90 84 82 83 81 80 78 68 52 49 35 37 39 39 40 38 35 40 48 74 54 57 42 45 44 32 30 30 27 25 31 28 19 21 20 19 21 28 30
100 100 96 90 90 90 90 86 85 82 79 78 74 63 59 40 40 41 41 40 37 34 31 35 41 55 81 55 47 41 49 57 34 30 30 27 39 25 19 20 24 20 19 23 27
100 99 100 98 96 91 90 89 86 78 72 69 62 55 52 39 36 37 42 40 42 38 39 36 33 53 68 75 69 54 52 51 44 28 31 31 36 24 18 18 24 22 18 18 23
100 100 100 100 96 91 91 91 76 67 52 43 45 70 52 40 37 43 42 42 39 34 34 39 44 74 79 82 87 55 50 34 35 31 30 34 33 25 19 17 20 21 20 17 21
100 100 100 100 99 94 88 65 41 37 38 32 33 52 30 30 21 20 19 28 30 35 48 35 55 88 67 67 56 41 38 37 28 24 31 34 32 28 21 17 18 21 21 18 17
100 98 100 100 98 96 80 61 44 45 50 32 29 27 26 28 38 30 33 25 23 28 30 44 48 37 44 44 63 56 50 36 27 24 29 33 33 28 23 20 15 17 21 19 16
98 96 100 100 100 93 80 72 64 60 53 30 24 30 34 33 41 39 33 35 38 33 26 30 34 28 34 44 54 64 63 50 49 29 37 40 37 30 25 20 16 14 16 18 18
93 99 100 100 99 91 91 75 65 64 65 35 36 39 40 40 50 34 30 38 41 43 32 26 20 29 31 40 47 69 54 53 62 62 78 47 69 35 27 24 20 16 14 14 17
93 100 100 92 96 93 86 72 69 76 91 23 38 36 25 31 20 25 24 33 36 36 37 46 27 27 36 35 30 64 50 52 56 82 60 46 53 36 26 29 24 19 18 16 14
99 100 100 95 91 94 79 63 75 79 88 29 40 48 27 20 18 15 17 23 27 36 35 37 32 30 35 37 29 29 58 59 68 64 95 67 60 40 29 25 22 19 17 16 14
100 100 100 94 96 91 70 61 89 90 29 26 31 26 26 22 19 19 30 36 32 43 48 35 35 34 28 62 41 35 64 97 97 97 92 50 53 41 24 20 17 18 16 15 14
100 100 100 94 92 83 61 90 93 62 49 24 25 27 28 26 26 34 33 29 21 24 44 63 51 26 28 43 68 37 85 83 91 73 81 54 69 41 26 22 18 16 16 15 14
99 100 100 100 93 77 84 94 79 67 44 30 29 32 32 37 50 42 34 27 25 41 74 78 48 34 27 33 53 59 64 83 97 84 50 35 34 28 25 25 23 23 18 17 15
96 97 98 99 95 90 96 85 67 59 43 36 46 34 51 37 45 58 49 25 26 37 84 72 84 34 30 39 41 53 41 94 98 96 88 35 36 35 25 29 26 27 24 21 18
91 99 99 100 98 99 92 76 65 70 55 44 41 41 41 47 50 60 61 42 40 48 68 97 82 42 41 56 52 60 70 63 98 82 92 58 39 23 22 24 27 26 25 22 20
96 99 100 100 100 96 84 76 67 77 49 46 46 47 42 36 55 59 57 46 45 48 57 56 97 72 47 36 58 74 97 93 91 95 70 90 31 16 17 22 24 25 25 24 24
100 100 100 98 94 92 94 85 70 77 54 50 47 42 37 49 74 64 56 38 52 48 76 62 85 85 50 61 74 93 75 83 79 61 92 76 39 20 19 19 24 24 24 26 26
100 96 100 100 87 87 93 82 90 72 64 56 52 41 47 55 54 84 60 46 37 38 43 61 75 87 90 95 95 90 85 91 98 72 65 58 36 24 21 23 24 26 25 22 27
100 96 62 96 95 90 95 90 88 88 60 50 52 48 54 88 52 46 38 49 41 35 53 68 66 52 51 42 50 85 92 92 96 94 98 59 54 20 19 22 23 25 26 25 25
98 99 100 95 76 90 94 88 86 84 89 56 56 44 46 66 46 50 40 44 56 48 67 74 71 50 44 30 42 54 48 82 88 80 75 70 45 19 16 22 21 23 27 26 26
99 99 100 97 96 95 80 69 89 89 80 50 42 45 44 37 29 30 34 39 40 60 74 71 65 59 50 30 36 45 51 44 77 70 67 74 41 17 17 19 20 23 25 26 24

GFSSW_925_rhum_138.txt.gz
RH
93 94 92 90 89 86 83 82 81 81 81 80 79 77 76 76 73 59 49 39 35 39 45 48 54 65 49 46 42 40 54 46 36 32 28 22 23 17 15 14 14 14 18 28 36
97 94 93 92 90 88 83 84 82 82 82 80 78 76 76 77 69 49 39 71 77 77 70 49 53 58 65 49 46 51 56 48 30 24 25 23 24 20 19 15 17 17 30 35 40
98 100 97 95 94 92 87 85 85 83 84 80 78 77 77 76 50 37 60 54 60 62 65 51 47 52 68 55 48 48 59 43 34 28 26 25 24 20 20 24 20 21 39 43 43
98 97 98 96 95 94 91 86 87 85 86 81 79 78 78 68 52 58 58 45 46 54 54 48 46 58 63 66 56 53 43 41 40 35 34 28 23 28 24 23 20 18 34 44 44
95 96 96 99 98 96 92 86 87 87 86 82 81 79 73 60 49 36 33 33 38 42 48 50 56 55 58 51 54 65 53 36 33 33 33 30 29 30 28 20 19 20 27 45 43
98 98 99 98 99 97 97 92 87 89 86 83 81 80 67 76 42 32 32 34 38 36 37 41 58 53 69 49 49 48 55 48 34 32 30 32 29 28 28 22 22 22 30 43 44
98 100 100 100 99 100 99 97 90 87 84 84 81 73 61 64 43 37 38 37 35 34 36 37 36 50 67 76 41 42 55 50 45 34 34 30 36 33 25 24 24 26 30 41 42
96 99 100 100 100 100 100 99 95 88 86 85 78 69 70 47 39 38 35 36 37 36 33 31 31 46 54 66 67 58 53 74 49 48 34 34 49 33 25 26 25 25 24 29 38
97 100 100 100 100 100 100 98 96 88 82 79 69 59 63 39 37 35 33 38 35 37 34 33 31 46 57 85 84 72 78 67 56 39 41 35 46 34 26 25 25 22 25 24 32
96 97 98 100 100 100 100 100 93 78 75 55 50 56 52 45 33 30 31 38 37 34 34 36 47 61 77 88 86 74 75 62 54 40 40 40 39 34 27 26 25 22 25 26 25
98 92 99 88 91 100 100 88 67 63 51 42 44 53 41 37 24 21 19 19 21 38 46 36 59 75 66 73 67 56 55 49 38 35 36 41 39 34 29 27 25 23 21 26 23
87 89 85 87 100 100 94 71 72 60 81 38 33 31 29 27 29 24 29 33 23 30 27 33 51 42 39 40 57 65 70 68 54 40 33 33 32 32 30 28 26 23 21 23 23
87 89 89 99 99 99 82 90 86 72 89 52 29 26 24 29 34 36 31 34 35 37 29 31 32 24 31 34 39 50 72 69 72 50 41 34 38 34 32 28 26 23 19 20 24
86 86 94 100 95 95 95 92 82 78 92 50 30 34 36 37 46 31 31 37 42 45 38 38 28 25 24 26 34 50 37 47 52 64 79 51 79 52 42 36 29 26 21 18 23
89 93 98 98 98 87 96 92 80 91 96 28 38 32 32 38 24 25 24 26 44 40 32 40 35 38 42 25 23 38 33 40 47 62 67 64 83 80 44 44 30 28 22 18 19
92 99 98 95 91 99 91 82 91 92 94 29 43 50 43 24 20 16 16 26 23 28 34 37 28 30 31 30 32 28 31 40 49 63 96 74 78 72 49 39 32 25 23 18 16
94 100 97 87 95 94 89 91 96 95 39 49 31 32 26 25 21 20 24 28 37 54 50 35 28 24 27 37 32 41 67 85 85 91 95 69 80 64 38 29 26 25 22 20 17
99 100 99 96 95 92 89 97 96 80 66 57 33 27 31 26 27 30 34 39 27 26 42 51 57 29 23 29 56 47 59 95 83 81 65 44 79 65 48 39 22 22 21 20 18
97 99 99 100 90 89 92 96 94 72 89 57 36 38 34 32 46 43 42 35 30 33 62 85 60 33 34 29 43 64 60 56 71 64 90 86 69 48 33 34 29 24 23 20 19
92 96 98 99 97 96 99 93 84 85 90 58 56 38 47 38 48 62 53 31 32 32 64 72 89 40 32 32 42 55 40 72 76 92 85 60 72 60 43 36 28 25 23 25 19
85 98 99 98 98 99 95 91 66 76 88 78 50 54 40 50 57 53 62 46 43 48 48 96 89 63 50 48 64 77 59 61 99 77 69 84 61 32 40 32 32 26 24 22 20
97 99 100 100 100 95 90 84 65 78 92 78 50 50 47 39 60 63 60 53 36 46 59 62 98 93 75 45 50 72 97 98 94 85 83 85 68 34 41 25 26 26 25 23 27
100 100 100 99 97 94 89 80 67 81 79 88 53 43 38 44 72 65 56 38 43 54 68 58 86 91 64 71 61 91 77 79 96 94 89 81 58 43 46 34 31 28 31 27 27
100 99 99 100 96 96 86 88 85 63 84 84 73 45 49 54 44 72 63 42 36 44 38 60 85 80 81 74 93 93 78 76 97 93 92 73 59 52 71 55 34 30 31 29 26
100 98 79 97 94 96 92 97 92 94 83 95 92 78 60 75 62 63 51 41 40 42 52 77 91 65 60 44 44 54 71 84 96 84 95 79 76 40 50 52 59 31 31 33 32
98 100 100 92 79 94 92 91 92 96 88 82 90 52 51 67 66 66 50 51 61 50 79 82 92 68 66 39 27 40 39 51 82 78 78 78 81 49 44 56 41 31 30 32 31
100 99 99 98 100 98 88 77 82 91 89 58 76 68 53 45 38 38 40 44 47 69 80 83 85 86 77 36 42 58 54 51 39 56 69 80 67 60 64 55 55 32 31 31 31

GFSSW_925_rhum_141.txt.gz
RH
94 100 100 100 99 98 97 95 91 90 87 86 84 81 80 78 79 76 74 53 51 67 62 61 57 52 53 72 60 51 78 73 55 42 33 24 26 22 16 16 14 14 32 37 45
100 99 95 92 95 98 98 99 96 91 90 86 86 81 80 80 78 71 46 55 61 68 71 73 60 52 62 75 66 64 81 69 43 36 32 25 25 27 23 20 18 24 41 41 46
93 86 86 85 95 95 92 91 98 95 91 88 87 79 80 79 72 48 55 55 49 52 53 63 68 54 70 73 74 62 77 56 47 41 34 32 29 28 28 26 20 32 54 49 45
92 95 96 95 96 97 98 93 92 99 93 91 91 83 82 74 57 58 62 53 40 41 48 60 62 68 71 77 68 84 56 53 51 44 42 42 39 40 34 25 20 36 48 48 48
94 94 96 96 97 98 100 99 92 98 95 94 92 86 82 77 69 37 42 34 34 37 38 44 59 64 69 62 61 77 64 50 45 45 42 40 43 41 36 29 27 26 48 50 48
92 93 95 96 99 100 100 100 100 98 97 97 94 90 78 95 51 40 40 37 36 38 36 38 51 48 61 77 71 54 51 56 57 57 42 44 41 38 32 28 30 27 49 51 49
96 96 97 97 97 100 100 100 100 100 97 99 92 88 76 76 49 42 39 42 37 37 39 36 36 47 56 77 65 64 74 53 55 52 59 42 46 42 32 28 31 30 34 51 49
98 96 99 96 92 90 97 99 100 100 99 98 86 86 91 63 49 48 41 43 37 36 38 36 35 41 54 55 66 75 68 84 52 48 46 52 61 37 32 31 29 33 35 54 51
100 87 99 95 86 99 99 92 99 100 100 88 95 87 94 50 51 44 41 37 39 36 36 36 36 46 53 82 87 73 90 77 57 43 47 59 66 41 33 32 30 28 32 47 51
85 88 84 82 94 87 94 100 100 99 85 88 78 88 78 54 36 37 26 22 31 38 39 38 52 68 72 84 92 82 84 70 74 56 51 51 55 44 35 32 32 30 27 32 46
87 84 86 88 89 92 99 95 79 82 82 57 68 70 46 46 40 28 24 21 22 25 57 42 64 80 69 68 64 64 75 67 55 50 52 54 49 40 35 36 35 32 28 26 34
86 86 88 94 95 94 99 78 69 66 80 59 51 56 54 49 40 30 24 31 37 37 32 46 52 43 51 49 60 72 78 82 64 52 57 54 54 40 37 35 33 31 30 27 26
88 88 88 98 95 94 86 93 78 70 95 79 62 54 47 29 35 32 30 39 40 33 31 38 34 24 30 39 52 50 66 66 69 54 53 64 65 52 38 34 30 30 27 26 23
94 91 92 100 92 88 96 89 80 77 98 66 33 30 37 34 45 30 31 39 46 53 41 48 36 33 36 36 28 37 32 38 43 54 87 57 78 61 50 43 35 30 30 26 24
94 92 95 100 94 84 95 83 82 91 96 45 40 30 36 45 37 26 32 38 50 50 35 45 38 38 42 37 31 43 38 31 31 42 59 54 82 69 52 54 44 34 33 26 24
94 100 99 92 95 99 84 84 96 94 94 41 50 54 47 35 28 20 22 30 33 38 32 34 30 35 36 32 33 32 38 45 56 51 76 71 64 54 47 49 46 36 31 27 23
88 100 95 88 97 90 86 94 97 93 60 77 49 46 36 28 25 24 31 38 40 57 54 38 31 25 24 33 29 42 58 90 94 93 79 47 64 55 46 34 35 36 33 27 24
98 95 91 91 87 85 92 96 95 89 82 79 75 51 42 29 34 42 40 43 36 36 69 68 53 34 32 40 49 50 62 85 90 91 57 41 67 50 32 32 37 35 29 27 25
86 94 98 100 88 92 97 97 94 86 86 92 84 51 43 40 50 44 45 46 37 47 62 85 72 42 41 36 36 66 79 55 75 64 74 77 58 38 29 35 41 36 32 32 24
86 94 98 98 95 96 98 86 88 81 87 91 90 54 62 46 54 71 60 42 43 57 69 87 93 50 43 38 40 46 50 81 90 93 90 62 69 69 52 39 34 41 35 31 26
85 98 99 98 98 95 97 92 78 79 80 93 89 63 54 61 66 66 64 50 47 53 57 90 90 64 53 58 58 80 80 82 92 84 89 68 49 26 28 30 37 35 28 24 24
93 97 100 98 99 100 96 83 64 73 78 95 92 74 67 52 71 71 70 60 45 56 66 71 94 98 74 50 42 54 96 97 95 89 97 83 51 22 48 48 65 62 45 26 21
99 100 100 98 99 99 93 88 74 78 79 88 92 72 45 51 66 69 63 45 51 81 77 64 90 100 71 59 39 69 58 76 89 95 95 87 76 37 34 41 54 64 54 50 26
100 98 100 100 99 98 92 93 90 71 77 86 85 69 65 63 54 73 69 53 47 50 42 62 93 87 91 70 76 81 69 58 77 94 94 90 73 56 53 63 57 53 45 57 51
100 99 86 98 97 96 94 98 94 95 88 92 93 85 80 87 69 65 54 54 51 54 62 74 89 79 70 63 60 64 65 62 87 75 90 70 77 57 84 72 66 62 70 60 50
100 100 100 100 89 96 95 96 88 88 96 92 95 67 75 94 64 72 62 60 63 58 81 89 88 73 77 53 48 51 43 39 57 56 69 70 68 84 76 73 80 85 83 74 37
99 98 100 100 100 99 95 85 87 92 94 64 75 78 88 77 53 49 48 49 53 72 81 89 96 93 83 54 56 60 46 76 78 89 80 83 94 81 81 84 95 88 78 74 57

GFSSW_925_rhum_144.txt.gz
RH
97 95 90 85 84 84 88 94 94 97 99 95 92 89 89 84 83 81 72 52 52 64 78 80 71 66 63 72 71 58 81 81 70 50 39 28 29 24 22 21 18 18 48 44 56
94 97 97 90 86 88 94 97 97 99 100 98 97 94 89 84 84 66 42 57 67 63 63 70 81 63 62 77 83 93 85 71 52 49 42 32 31 28 28 31 27 25 41 55 84
88 88 90 92 93 90 91 93 96 99 100 100 99 98 89 85 68 54 47 65 51 50 48 48 64 67 65 68 86 78 86 54 54 47 44 41 36 32 32 37 31 25 48 62 84
91 88 90 91 93 95 95 96 97 96 100 100 100 100 89 76 80 49 68 68 52 40 38 53 75 83 78 78 63 92 69 63 58 53 50 50 42 42 38 36 31 29 54 57 84
93 93 93 92 91 94 94 93 96 98 99 100 100 99 90 72 74 47 52 50 39 38 38 43 59 76 84 66 58 70 67 67 61 55 54 50 54 51 47 40 35 28 54 56 57
94 94 94 94 90 92 94 96 86 93 95 100 100 98 88 96 57 44 44 44 42 41 40 39 47 48 56 66 64 57 58 57 57 64 53 55 52 48 42 37 36 33 59 58 52
92 96 100 94 90 98 96 87 90 98 93 99 100 98 86 76 54 58 56 53 46 46 44 38 38 44 55 69 61 67 83 70 64 54 62 59 72 66 42 38 35 34 48 57 54
92 87 85 86 83 80 84 90 86 79 86 100 99 93 95 69 64 63 56 51 44 42 44 38 38 42 46 49 57 72 80 91 57 55 51 59 79 51 47 41 38 36 41 56 56
82 79 82 80 85 87 92 92 90 99 100 100 92 87 88 64 59 46 53 52 39 39 39 37 40 54 53 68 82 72 94 86 70 44 47 58 67 48 44 41 38 35 37 48 56
84 88 85 86 87 92 99 94 100 96 96 94 93 87 78 60 45 36 29 27 22 23 35 42 55 69 68 78 87 70 73 64 68 62 60 54 59 48 48 45 39 36 36 40 59
90 90 89 89 91 75 100 95 82 85 83 72 78 70 53 70 72 44 38 28 23 26 35 45 64 81 68 63 60 66 76 97 88 62 62 78 81 59 43 47 46 38 35 37 39
90 91 90 97 92 79 88 88 75 73 87 66 73 68 61 62 82 58 36 36 33 46 34 42 65 49 45 56 65 68 77 78 57 48 58 74 70 62 48 44 37 39 38 36 33
90 89 91 98 99 89 87 83 74 69 93 81 66 64 64 58 69 38 29 32 42 42 38 45 39 29 34 39 54 63 73 69 69 55 49 57 67 51 48 43 40 36 33 34 31
93 90 93 99 92 88 94 81 74 72 99 71 52 43 40 36 44 28 31 41 48 50 45 38 29 34 36 40 36 52 32 34 44 54 93 53 72 54 41 42 41 38 38 34 32
81 91 90 100 90 87 84 78 81 84 95 49 43 31 36 50 44 29 32 40 50 46 41 52 38 33 42 38 35 45 39 40 42 55 60 64 87 64 54 55 47 43 41 36 32
78 97 98 94 92 92 80 85 85 84 90 51 51 65 64 47 38 24 36 38 39 49 47 47 27 34 37 34 34 32 42 51 52 57 85 73 67 64 50 42 38 42 40 37 36
78 91 89 91 96 84 84 88 89 88 67 68 53 49 54 42 28 25 34 37 40 56 57 44 37 29 29 35 37 42 67 94 91 100 74 44 63 53 43 30 30 33 34 40 38
88 81 95 89 87 86 90 88 91 76 78 76 81 75 70 36 37 41 39 43 36 40 76 68 51 34 41 41 49 46 63 94 98 93 88 59 65 46 32 28 27 35 32 36 39
75 84 96 99 91 88 91 96 84 80 80 87 80 84 49 46 53 47 48 50 43 59 59 82 66 47 40 40 41 58 87 62 79 77 86 67 41 28 20 25 38 31 30 35 38
74 94 99 97 96 84 94 88 86 82 86 82 91 88 84 48 54 71 60 45 54 57 69 86 78 51 48 37 42 49 63 86 95 97 88 77 58 43 38 43 36 31 38 35 33
80 97 94 94 96 94 98 90 83 79 78 88 88 92 62 67 67 70 61 49 47 58 64 91 80 65 49 51 63 76 78 81 96 96 91 83 49 28 29 23 41 42 52 53 50
93 100 98 98 100 100 95 82 67 76 85 86 92 81 80 57 73 76 66 52 51 52 65 71 94 99 75 53 50 44 88 90 95 88 89 89 53 48 51 61 65 58 63 52 46
100 100 100 98 99 97 94 91 75 81 81 83 83 77 69 62 78 68 56 47 57 66 76 69 89 99 70 62 46 70 50 80 89 94 89 96 77 49 43 48 69 71 59 61 62
100 99 100 100 99 94 90 92 91 74 76 74 84 77 86 78 59 70 68 57 58 64 53 62 88 79 80 69 78 84 76 64 81 94 75 77 73 42 44 81 76 79 72 77 70
100 98 94 98 97 97 93 97 94 96 89 80 95 89 88 97 80 73 59 61 51 49 61 78 96 94 85 71 75 76 72 68 78 73 80 64 51 41 82 79 76 91 76 72 68
97 100 100 100 98 99 96 96 90 80 98 94 96 73 85 94 68 74 66 69 68 65 85 92 87 78 82 65 56 55 50 48 51 74 84 65 57 71 69 66 73 96 87 76 70
99 99 100 82 96 98 94 86 88 97 95 71 79 83 81 80 64 64 58 58 53 70 85 91 94 96 81 61 60 70 58 73 82 86 89 90 90 72 73 66 87 97 94 93 79